GFSGL_925_rhum_045.txt.gz
RH
69 70 74 77 80 79 77 83 86 88 87 85 84 87 89 88 88 88 90 94 90 98 100 100 100 100 100 99 98 98 97 96 96 100 95 97 100 99 100 99 100 94 90
72 72 77 78 77 76 74 80 85 85 87 88 87 85 84 86 88 85 89 90 93 100 100 100 100 99 100 99 96 94 93 93 95 99 100 99 100 100 100 98 97 91 88
73 74 79 80 80 80 80 79 77 79 79 80 81 83 84 84 86 87 88 90 91 98 100 100 100 100 100 99 98 96 97 99 100 98 100 100 99 98 100 98 93 93 100
78 80 85 85 86 87 87 87 87 85 83 83 82 81 81 81 82 85 88 92 93 95 94 94 94 96 98 100 100 100 100 100 100 100 100 99 99 99 100 100 99 95 67
81 82 87 88 92 93 95 95 94 94 91 89 88 86 87 88 93 89 93 95 94 94 94 95 96 96 97 97 97 98 100 99 100 100 99 100 100 100 99 92 83 77 72
84 88 89 91 97 97 99 99 100 100 100 99 99 99 99 100 100 88 91 94 95 96 100 100 100 100 99 99 100 100 100 100 100 99 99 98 98 87 79 82 83 74 72
88 91 94 97 99 100 100 99 98 99 100 99 99 99 99 99 100 97 95 98 98 100 100 100 98 98 100 99 99 99 99 99 98 89 88 84 80 71 70 70 72 72 72
96 98 99 99 100 100 99 98 99 100 99 100 99 99 99 100 99 96 93 93 95 96 95 94 96 96 90 88 82 81 72 72 72 91 88 84 78 75 77 80 79 81 81
99 99 99 99 99 99 99 100 100 100 100 99 98 99 99 98 98 75 72 78 72 67 63 70 64 65 79 77 74 75 78 77 72 86 83 78 76 76 78 84 85 86 89
100 99 98 99 99 99 99 100 100 100 100 99 88 80 80 78 73 71 62 63 65 65 64 57 70 70 79 83 87 85 82 78 75 73 71 65 63 62 66 68 64 71 80
99 95 98 100 99 100 100 96 75 65 70 74 81 90 84 73 82 81 69 55 56 56 58 62 68 85 88 90 88 83 83 82 81 74 65 66 59 49 56 59 62 68 72
91 89 89 90 91 91 66 57 56 52 52 57 61 62 62 56 66 75 74 75 75 64 71 74 76 88 85 82 76 73 72 78 71 62 60 53 62 73 78 81 83 82 86
90 89 86 80 77 65 49 44 47 43 39 40 41 39 35 38 51 66 71 74 76 75 79 85 86 81 76 56 56 65 67 55 56 59 64 69 73 78 79 80 80 81 82
77 63 45 40 39 39 38 38 36 35 34 33 32 35 38 44 58 63 67 67 67 66 75 72 68 72 52 50 52 52 56 60 68 73 74 82 85 89 92 94 94 91 90
49 37 36 37 36 34 34 32 30 30 35 31 35 39 40 47 58 72 73 74 79 81 81 64 49 48 50 54 57 61 67 76 84 88 91 92 93 96 95 92 93 91 99
40 38 38 35 32 40 44 50 43 36 33 33 36 32 38 54 72 74 76 80 83 81 79 63 54 52 54 61 67 72 79 85 87 94 94 97 95 92 92 93 94 98 100
38 38 36 34 42 49 53 52 50 54 46 37 32 28 31 40 63 69 76 82 83 73 65 62 52 52 55 63 70 75 82 83 93 94 96 96 95 95 96 96 99 99 100
38 34 36 40 42 45 45 40 31 27 26 24 27 30 36 40 52 65 74 80 70 55 54 54 56 57 59 62 68 72 77 87 87 96 97 99 96 95 96 96 94 98 100
37 36 38 38 40 39 34 28 27 26 26 26 26 29 33 44 53 60 69 71 70 64 58 56 58 61 63 66 72 76 77 81 89 93 94 96 92 93 100 100 99 91 93
38 37 39 38 38 34 29 27 26 26 27 27 29 33 37 43 53 58 61 66 62 56 55 58 60 62 64 68 73 77 80 83 85 85 83 83 81 85 97 99 100 99 97
42 42 39 38 35 33 28 26 26 28 28 27 30 35 49 54 58 55 52 54 54 55 57 62 63 65 66 68 73 78 80 82 84 83 83 80 82 89 89 99 100 100 100
48 46 46 40 35 34 29 27 27 29 27 28 32 37 49 54 49 50 52 53 55 58 62 67 70 72 75 77 76 79 82 84 79 76 79 84 92 98 98 99 100 100 99
56 52 44 44 37 33 31 28 29 29 26 28 35 40 44 47 51 54 58 62 67 73 78 83 84 82 79 80 83 87 91 89 89 95 97 98 100 100 100 100 100 100 100
89 85 45 45 40 34 31 30 31 31 28 30 38 40 45 51 57 63 70 78 83 86 88 88 90 91 92 91 90 91 94 96 97 97 98 99 100 99 100 100 100 100 100
99 96 77 46 41 37 31 30 31 28 27 31 36 41 48 57 64 70 78 83 88 92 86 90 93 94 94 94 93 94 97 97 99 99 97 99 99 98 100 100 100 100 100
99 98 96 46 39 35 33 32 30 30 26 30 36 41 50 61 64 71 79 85 91 94 93 91 91 92 94 94 94 96 96 98 100 100 98 98 99 100 100 98 98 100 97

GFSGL_925_rhum_048.txt.gz
RH
70 74 77 79 81 79 78 77 84 83 82 86 86 86 85 84 86 88 92 93 92 98 99 100 100 100 100 100 100 99 97 98 99 99 97 92 92 96 100 100 100 100 99
73 77 79 79 80 79 78 77 81 82 80 81 84 85 85 86 87 87 88 89 89 90 92 96 99 100 100 100 99 100 100 100 100 100 99 100 99 100 100 100 100 99 100
76 80 82 82 82 83 82 81 80 80 81 81 80 81 83 84 88 89 87 86 88 89 94 97 100 99 99 99 100 99 99 100 100 100 100 100 100 99 100 100 99 100 100
81 86 86 87 89 90 90 90 89 88 86 86 86 87 88 86 85 87 89 90 90 90 91 92 93 93 95 97 99 100 100 100 99 100 100 100 100 99 100 100 100 100 100
83 88 90 92 94 98 98 97 96 93 96 96 93 91 96 99 94 90 90 91 92 96 98 100 100 99 98 99 99 100 100 99 100 100 100 99 100 99 99 99 99 98 87
86 91 93 95 98 99 99 99 97 99 99 98 98 98 98 99 99 95 92 96 100 100 99 100 100 99 100 99 99 99 99 100 98 99 99 99 100 99 97 95 90 85 71
89 92 94 99 99 99 99 99 99 100 98 99 98 98 99 99 99 93 92 93 95 97 96 94 93 97 98 98 98 100 99 99 97 94 94 87 83 75 72 72 74 75 74
97 98 100 100 100 100 100 100 99 99 99 99 100 99 99 100 98 92 92 93 92 90 76 68 64 60 79 75 68 70 72 72 73 80 89 85 80 77 79 83 85 86 85
99 99 100 99 100 100 99 99 100 98 98 99 98 99 95 86 74 58 58 57 56 56 57 64 54 60 74 79 75 74 77 78 75 90 87 82 81 80 80 82 86 88 88
99 99 98 100 99 99 99 97 100 98 99 84 84 83 79 77 75 70 54 55 56 56 53 53 74 81 85 88 88 84 83 81 80 77 76 74 68 58 58 72 71 68 75
98 99 99 96 97 97 99 99 87 75 77 80 78 78 71 71 81 78 72 56 52 56 61 64 67 89 88 84 83 82 76 83 83 79 70 58 61 52 53 62 60 62 67
90 92 97 100 100 99 66 57 60 62 61 64 61 57 51 45 63 71 74 76 77 65 68 72 77 83 82 78 72 67 67 74 73 54 60 56 68 77 79 81 81 82 82
90 90 91 96 91 58 55 57 59 52 47 45 46 40 34 36 47 58 75 84 83 75 80 86 86 83 79 59 53 64 61 54 55 58 64 70 74 80 84 86 85 87 88
90 90 89 83 77 70 55 43 41 39 37 36 33 34 35 39 52 60 64 64 66 70 76 79 60 66 56 54 52 54 56 62 73 77 79 85 87 91 96 98 96 98 96
88 80 58 44 43 39 37 36 34 32 32 30 29 32 35 39 44 71 74 76 78 82 80 79 53 49 51 52 58 64 69 77 87 89 91 94 93 96 97 97 92 92 96
80 54 38 37 41 38 40 44 40 35 32 28 28 28 32 38 69 73 75 79 84 82 80 77 56 51 52 57 66 71 74 85 84 90 95 93 94 94 94 93 94 96 100
76 46 38 38 37 37 45 47 48 52 54 42 35 32 33 40 55 63 71 79 83 76 57 59 57 55 56 58 61 68 72 74 88 85 90 94 93 94 96 97 94 97 98
72 47 37 38 34 38 48 50 49 42 33 28 25 53 37 45 49 59 65 75 77 65 58 56 55 57 60 62 64 68 72 75 77 84 92 89 92 94 94 100 100 100 100
66 43 39 36 38 41 45 46 38 28 26 24 24 24 29 35 50 57 63 65 69 67 63 57 56 58 60 62 64 68 74 76 84 93 92 89 88 89 92 92 97 92 90
58 42 38 37 41 43 42 38 30 27 26 26 26 25 30 35 43 51 51 52 60 59 54 55 56 59 62 64 65 67 70 70 71 72 73 73 73 79 88 87 92 99 100
58 48 45 41 41 40 37 32 28 27 27 27 24 26 34 52 55 56 52 47 50 51 54 57 59 62 64 67 72 75 76 74 72 70 71 72 75 85 86 94 100 100 100
73 68 48 48 40 38 36 32 28 27 27 28 24 27 39 53 50 45 47 49 53 56 60 65 70 73 76 79 81 85 86 85 81 80 85 91 95 98 99 100 100 100 100
70 73 48 51 57 38 37 34 29 28 28 28 25 29 35 39 43 48 53 58 65 73 79 83 86 84 81 86 90 93 96 94 94 99 98 98 100 100 100 100 100 100 100
79 77 52 74 97 48 38 34 32 30 30 28 26 30 35 38 45 52 60 68 76 80 85 89 90 90 92 92 91 93 96 98 98 97 98 97 100 100 100 100 100 100 100
87 90 98 98 97 86 61 36 33 32 32 29 26 30 33 39 47 56 62 71 78 83 86 88 88 89 92 92 93 96 99 98 98 97 97 97 96 95 99 100 100 100 100
98 98 98 98 97 97 67 38 34 32 30 27 24 27 33 38 46 56 62 70 78 85 89 88 87 88 89 89 89 91 91 90 100 99 99 98 99 100 100 100 99 100 98

GFSGL_925_rhum_051.txt.gz
RH
70 73 78 83 83 82 81 84 83 82 80 83 86 87 86 85 87 89 91 92 93 98 96 98 99 99 100 99 99 100 100 100 100 99 98 96 94 92 99 99 100 100 100
73 77 79 81 83 81 80 80 80 78 79 80 83 84 86 87 89 89 89 90 89 90 89 85 89 94 98 99 99 97 98 98 100 100 100 99 100 100 100 100 100 100 100
77 82 83 84 84 85 86 85 82 83 84 83 82 82 82 84 86 89 91 90 88 86 90 93 93 91 92 93 95 96 97 98 100 100 100 99 99 100 100 100 100 100 100
84 86 87 88 91 93 94 93 91 91 90 90 92 94 94 86 87 89 91 92 92 94 96 94 94 92 94 96 97 99 99 99 99 100 100 100 100 100 100 100 99 100 99
86 88 90 92 94 99 100 100 98 97 98 97 99 99 99 100 98 91 94 98 100 100 100 98 99 99 100 99 100 100 100 99 99 99 99 99 100 99 100 100 100 99 98
88 91 92 95 97 99 99 99 99 99 99 99 98 99 100 97 100 94 98 100 99 98 96 99 99 99 98 100 99 100 100 98 96 97 99 98 98 98 97 97 97 90 75
90 92 95 98 100 100 100 100 100 100 99 98 97 96 100 99 100 89 89 90 92 93 91 90 90 90 87 80 82 90 95 94 94 95 88 88 83 76 74 73 75 76 75
93 96 98 99 100 100 100 100 100 98 98 96 97 96 97 99 93 84 85 83 75 61 51 51 53 59 76 80 56 60 69 70 80 78 86 84 79 80 83 86 85 85 86
98 98 99 99 100 100 100 100 98 99 96 94 96 91 77 80 65 50 50 51 51 50 56 72 76 77 83 96 78 73 73 78 81 94 90 85 85 84 82 78 84 87 83
100 98 99 99 100 100 100 99 98 98 98 97 79 76 77 79 82 64 41 41 43 46 49 53 64 86 86 86 84 82 70 78 81 76 70 69 66 63 60 62 72 76 72
97 99 100 100 99 97 97 99 98 93 71 76 73 70 68 69 77 77 75 58 52 52 57 60 63 84 85 82 81 74 73 77 78 73 56 53 54 54 57 73 74 69 68
98 99 98 97 99 98 98 82 75 68 70 66 60 52 45 40 54 65 75 76 78 74 67 70 80 87 82 76 65 67 70 74 69 49 54 58 69 75 78 79 80 80 82
97 96 100 100 98 89 53 57 60 58 51 46 46 41 33 32 40 52 64 73 69 75 67 83 83 73 83 74 52 64 65 52 56 61 72 76 79 85 85 85 87 91 92
91 92 96 98 94 64 60 58 57 51 41 38 37 34 32 33 38 50 56 62 65 69 75 81 72 51 56 58 50 52 57 63 78 83 84 90 90 92 95 99 95 93 98
90 91 93 89 85 73 64 44 40 36 33 31 29 29 30 30 33 52 74 75 77 81 82 83 76 48 49 48 53 61 66 70 84 86 90 89 93 93 96 98 97 92 96
92 92 88 68 51 43 40 39 35 34 34 31 27 27 27 30 49 71 73 74 81 84 83 78 73 57 52 54 56 59 64 74 78 86 83 87 88 90 91 93 94 98 96
90 83 73 47 39 42 42 45 46 48 56 42 35 33 36 38 50 65 67 72 80 84 64 52 52 53 54 57 60 62 64 66 73 77 92 89 85 87 93 95 98 97 100
85 78 62 41 38 39 39 40 44 46 46 43 40 43 58 49 51 60 62 65 70 75 70 62 58 55 55 58 61 64 65 68 73 76 78 81 88 100 100 100 100 99 98
86 83 74 54 38 38 35 41 50 52 44 29 25 23 24 42 48 57 60 57 53 60 63 61 55 53 56 58 60 63 65 65 66 69 72 74 75 81 87 88 87 96 93
84 80 71 58 41 41 40 46 50 46 35 28 25 24 23 28 35 36 47 49 46 48 52 50 49 53 56 59 62 64 68 70 69 70 70 72 71 76 83 84 89 95 98
85 83 79 59 44 40 42 46 44 39 31 27 25 25 23 30 34 48 51 48 44 44 46 49 51 55 58 64 70 74 78 80 80 79 80 80 84 91 93 96 97 97 98
82 83 89 75 62 87 45 42 40 34 30 28 26 26 24 50 51 48 44 41 46 51 55 61 68 73 78 82 83 86 90 93 91 90 94 96 98 98 98 97 97 97 97
79 83 91 91 99 94 96 50 38 34 31 28 27 27 24 29 34 37 40 45 52 59 68 76 81 85 86 87 90 94 99 97 97 100 99 98 98 98 98 98 97 99 100
76 81 97 98 93 81 96 94 43 37 32 30 28 28 24 26 32 35 42 50 59 65 73 78 82 85 87 88 90 92 95 97 99 99 99 98 98 98 100 100 100 100 100
79 96 98 98 97 98 98 94 89 66 36 33 31 30 26 26 31 34 42 52 60 66 71 77 83 84 86 88 88 88 90 95 98 96 99 97 94 92 98 100 100 100 100
74 88 98 98 98 98 98 98 97 89 43 34 31 28 26 25 30 34 39 52 59 64 71 78 83 84 85 86 87 88 88 88 96 99 99 99 100 100 100 99 98 100 99

GFSGL_925_rhum_057.txt.gz
RH
68 68 72 78 84 88 90 87 83 80 78 79 82 85 84 86 90 92 97 99 98 95 97 93 90 92 94 92 88 92 98 99 99 100 100 97 93 90 89 94 94 93 93
71 74 77 83 85 85 84 83 82 81 80 80 83 85 86 88 92 93 92 93 93 92 90 86 85 88 88 89 88 88 92 94 96 99 100 97 95 95 99 100 96 100 98
75 78 82 84 87 88 89 87 85 84 85 86 86 84 85 87 90 93 93 91 91 92 91 88 90 91 90 91 91 92 92 94 99 99 99 98 97 96 99 98 99 98 98
79 83 86 89 91 93 94 92 92 91 92 94 97 99 93 93 95 98 100 100 100 99 99 99 97 94 97 98 96 95 93 91 95 99 98 99 99 97 98 98 98 90 88
82 86 88 92 96 99 99 99 98 97 99 99 98 98 99 100 100 99 100 99 99 99 98 98 99 100 99 96 95 94 91 94 98 99 100 98 97 98 100 100 96 95 96
85 88 90 93 96 99 100 99 100 99 99 99 99 99 99 99 99 98 98 98 98 96 99 97 95 94 97 98 96 98 97 96 91 95 97 89 90 86 82 83 82 75 70
89 92 93 95 99 100 100 100 100 100 100 100 99 99 99 99 100 92 89 86 83 83 83 77 65 67 60 50 52 58 70 80 86 78 83 86 82 81 76 81 86 84 76
91 92 94 96 100 100 100 100 100 100 99 99 99 99 99 100 90 75 62 47 42 42 43 50 68 85 86 60 52 54 67 84 88 83 85 86 89 91 89 84 83 83 81
92 92 94 97 99 100 100 100 100 99 98 93 87 79 70 75 51 45 42 42 44 54 63 72 72 82 89 86 64 57 57 75 82 85 82 83 84 83 87 84 87 82 64
92 93 96 98 99 99 99 99 100 98 93 90 78 73 75 73 74 37 37 37 41 46 51 55 78 86 85 87 78 59 66 74 73 64 51 42 42 46 50 53 56 78 78
92 94 98 100 99 99 99 100 99 97 96 86 71 74 74 74 80 85 62 54 52 52 55 57 60 90 84 80 79 61 74 76 73 55 42 46 54 63 69 73 77 82 82
96 98 100 100 100 100 100 99 99 100 98 77 69 64 54 50 55 67 78 77 66 55 54 56 67 79 78 84 80 66 79 64 48 48 52 61 66 68 71 75 78 82 84
100 100 100 100 100 100 100 98 100 81 72 68 62 49 38 31 33 48 69 71 63 66 57 66 84 67 52 46 55 72 52 48 52 58 70 73 78 82 83 85 88 94 92
100 100 100 100 100 99 99 99 74 66 60 51 47 42 37 31 28 31 41 44 51 60 66 72 77 72 55 46 45 44 47 53 65 76 76 79 80 80 89 95 100 100 100
99 99 100 98 100 99 99 65 56 50 45 41 35 33 31 28 24 23 32 47 66 70 87 88 81 73 61 48 44 45 48 52 59 72 81 83 85 88 92 92 92 94 97
99 99 98 100 99 98 88 64 62 60 50 41 37 30 26 26 23 28 60 78 74 75 83 83 80 56 51 53 49 49 50 53 55 60 65 68 82 94 96 96 97 96 91
91 94 94 97 99 99 94 75 71 52 45 41 40 56 29 24 26 33 45 63 69 73 78 82 75 58 51 49 49 51 52 52 57 58 62 64 68 70 81 92 93 95 92
93 89 89 92 90 90 86 76 57 44 47 51 64 68 61 56 66 58 59 67 67 68 71 73 70 65 62 55 50 51 50 52 55 57 59 60 62 67 76 90 94 95 92
98 93 92 89 87 83 81 69 50 46 46 43 43 48 55 71 77 74 69 67 64 58 50 47 44 49 53 50 48 49 52 54 55 58 59 64 67 74 76 76 80 94 95
98 93 91 89 89 87 81 68 50 47 47 46 45 44 38 26 31 44 51 48 53 42 40 43 39 40 44 44 47 50 55 60 65 69 73 79 84 91 94 94 97 100 100
97 98 99 100 94 89 81 70 55 47 47 45 41 41 42 30 24 24 24 25 28 34 40 42 40 42 45 50 56 65 74 80 83 83 86 92 97 100 98 98 99 100 100
99 100 100 100 98 93 89 84 78 93 71 51 50 53 41 47 31 28 27 26 31 37 38 39 43 47 54 63 73 81 87 89 89 90 95 98 100 100 98 99 100 100 100
100 100 100 100 100 98 95 93 82 93 88 86 98 91 48 35 31 32 31 28 28 31 33 40 47 53 60 68 76 82 87 87 88 94 98 99 100 100 100 100 100 100 100
94 95 93 92 95 98 99 98 98 98 98 98 98 98 96 71 31 27 25 23 23 28 32 40 48 54 60 67 73 81 86 87 91 94 98 100 100 100 100 100 100 100 100
84 84 86 88 98 99 99 99 99 98 98 97 97 97 96 96 85 55 27 25 24 26 30 37 44 52 58 64 72 78 86 90 94 96 100 100 100 99 99 100 100 100 100
79 86 87 87 98 99 98 98 98 98 98 97 97 97 97 97 96 53 31 27 23 24 30 34 42 51 55 61 69 80 88 91 100 100 100 98 97 98 99 98 97 98 99

GFSGL_925_rhum_060.txt.gz
RH
68 70 73 76 81 86 86 87 84 82 78 78 78 81 82 85 91 98 99 95 92 94 92 92 92 95 98 97 97 92 95 99 98 100 99 96 96 97 97 92 97 96 97
69 71 74 79 82 82 82 85 84 83 82 82 82 84 86 87 90 91 92 93 91 91 91 93 92 91 95 95 96 94 95 94 95 94 100 100 97 93 99 99 98 96 100
73 74 77 78 81 82 85 86 88 89 90 88 88 88 89 90 94 94 93 94 94 93 91 90 92 91 93 95 97 98 99 100 100 98 100 98 96 91 99 100 96 92 94
78 77 77 80 83 86 90 91 92 92 92 93 96 97 94 93 97 100 100 100 99 99 100 99 96 96 99 100 100 99 97 99 99 98 99 100 100 99 99 100 90 94 95
79 82 84 87 92 97 98 97 96 96 97 99 99 99 100 99 99 99 100 100 99 99 99 99 100 99 97 96 100 100 99 99 99 99 94 92 88 87 93 90 79 74 75
77 80 85 91 93 96 99 99 99 100 99 99 99 100 100 100 99 100 99 99 99 100 100 94 91 93 97 97 98 96 92 93 99 99 90 76 78 73 69 68 65 60 58
76 79 85 90 95 100 100 99 100 100 100 100 99 100 100 100 99 99 97 94 93 93 92 81 69 62 57 57 63 59 64 91 68 70 60 61 61 66 81 83 74 71 60
80 82 88 94 99 100 100 100 100 100 100 100 99 99 100 99 100 82 72 62 53 46 40 46 63 74 75 59 68 68 76 79 82 77 76 77 82 84 85 88 77 74 64
84 85 91 98 100 99 100 100 100 100 100 100 99 99 96 91 60 41 35 38 41 44 51 71 74 78 93 75 72 69 57 71 76 73 73 75 80 81 81 78 80 67 55
87 90 94 100 99 99 99 100 99 100 97 92 84 73 69 78 57 37 39 52 49 49 57 68 69 80 84 90 73 56 52 60 73 70 56 51 48 54 46 63 67 79 67
90 96 100 99 100 100 100 100 100 100 95 89 77 74 70 73 75 58 43 48 47 50 52 56 66 84 83 80 79 55 66 68 70 54 46 48 60 69 74 82 81 92 90
95 100 100 100 100 100 100 100 100 98 97 91 78 75 74 72 70 82 82 62 60 57 56 59 66 68 73 82 83 67 76 68 50 47 48 49 58 71 84 88 85 89 96
99 100 100 100 100 100 100 100 100 100 97 78 71 63 56 49 50 51 77 83 83 64 63 60 76 69 57 49 50 68 66 52 49 51 52 66 78 90 73 86 95 99 97
96 100 100 100 100 100 100 100 100 97 85 65 63 53 45 40 38 37 58 75 74 72 64 79 79 74 62 55 53 52 53 53 57 60 63 66 74 92 89 91 94 91 93
97 100 100 100 100 100 100 99 98 75 64 56 50 45 45 40 32 26 30 50 59 67 77 82 80 72 61 51 48 49 51 55 58 63 68 68 66 68 79 83 87 87 86
99 100 100 100 100 100 100 100 95 70 50 46 46 40 32 28 25 22 24 33 68 82 83 78 70 67 55 47 45 44 46 55 58 68 74 77 75 78 80 83 88 86 82
100 99 99 100 100 100 100 93 65 68 64 62 50 44 36 26 26 27 41 76 74 71 68 68 74 68 60 57 56 59 63 64 69 76 79 83 88 89 86 81 78 80 79
98 100 94 99 100 100 100 93 69 60 58 63 60 65 70 60 30 39 55 67 67 68 67 71 72 71 67 67 67 67 68 69 74 78 82 90 92 92 89 85 83 84 83
100 100 100 99 97 94 94 90 86 80 57 47 47 52 75 78 81 82 76 69 62 65 64 66 66 68 70 73 75 75 73 75 77 82 88 91 92 96 93 91 91 90 89
100 100 100 100 97 95 89 81 74 67 58 52 49 41 38 52 69 81 79 77 72 68 64 62 50 47 47 57 58 63 76 77 76 85 91 96 98 100 100 100 100 99 97
100 100 100 100 99 95 93 88 82 73 65 52 45 40 39 41 40 35 37 43 55 50 39 35 40 45 42 42 44 52 60 71 86 95 100 100 100 100 100 100 100 100 100
100 100 100 100 100 99 94 91 86 76 80 73 56 48 83 65 49 41 31 25 24 24 24 32 41 41 40 44 49 57 67 78 89 99 100 100 100 100 100 100 100 100 100
100 100 100 100 100 100 99 98 93 87 87 95 94 93 98 98 76 52 38 78 36 31 30 34 36 36 40 47 55 63 71 78 85 94 99 100 100 100 100 100 100 100 98
100 100 100 100 100 100 100 100 99 98 98 99 99 98 98 98 84 60 71 86 37 39 26 26 29 33 40 49 55 61 68 72 81 89 93 98 100 100 100 100 100 100 100
88 93 95 96 96 100 100 100 100 100 99 99 100 100 98 98 97 97 96 78 92 32 25 25 27 30 37 44 53 60 66 72 80 88 93 100 100 99 98 100 100 100 100
91 89 89 90 95 96 100 100 100 100 100 100 100 100 98 97 97 97 97 97 82 35 32 36 24 29 33 43 50 55 63 72 85 99 100 100 99 98 99 99 98 100 99

GFSGL_925_rhum_063.txt.gz
RH
58 60 63 66 71 74 74 76 76 76 77 77 79 80 81 82 84 90 98 93 88 92 91 91 90 93 95 95 95 95 99 98 94 100 99 100 96 92 96 97 100 100 100
59 60 62 66 70 71 71 76 76 76 78 79 80 80 80 83 84 84 87 89 90 89 89 91 89 89 93 94 95 93 93 94 91 84 99 100 99 95 99 99 99 100 100
62 62 65 67 70 69 71 75 78 79 81 82 81 80 82 86 87 87 86 86 86 86 86 87 88 88 93 94 96 97 98 97 98 95 98 99 99 91 98 100 100 87 98
69 67 66 67 70 71 74 79 80 82 82 82 85 87 91 93 96 98 98 98 99 100 99 95 95 96 98 99 98 99 99 97 98 96 98 98 97 99 99 98 87 83 86
69 71 72 74 78 81 83 85 85 87 86 90 94 98 99 99 99 99 99 99 99 99 100 99 99 96 95 96 98 98 98 97 96 97 88 93 85 84 87 87 76 70 68
67 70 73 78 82 88 90 94 95 95 96 97 98 98 99 99 99 100 100 99 99 100 99 96 92 94 97 98 96 91 87 90 99 96 89 77 76 72 64 66 65 68 65
66 67 71 77 81 88 93 97 100 99 99 99 99 98 99 99 99 98 98 99 99 99 94 90 80 68 61 59 54 50 70 44 66 71 59 59 59 67 76 79 78 75 66
70 69 75 79 85 94 99 99 99 99 100 99 99 99 99 99 99 97 90 88 87 78 60 49 56 68 56 60 57 62 69 76 78 71 74 76 79 81 81 83 78 77 68
73 73 78 83 89 98 100 99 100 100 100 100 100 100 99 98 97 64 45 39 36 39 46 69 72 78 87 60 70 53 54 66 68 55 57 57 59 62 67 70 82 71 68
76 78 82 87 94 100 99 99 99 100 100 100 100 98 95 87 66 40 39 51 45 53 54 68 50 75 81 82 71 56 49 54 66 71 55 49 48 53 39 51 62 83 77
81 83 87 92 99 99 99 100 100 100 100 94 87 73 64 68 79 49 34 46 43 44 48 53 59 62 78 80 76 60 62 65 67 55 45 44 53 64 69 75 71 81 94
83 88 94 98 100 100 100 100 100 100 99 95 86 77 73 73 74 83 70 53 56 53 52 54 58 56 70 77 84 78 69 64 53 45 45 44 47 57 76 80 79 71 91
86 90 96 99 100 99 100 100 100 100 98 89 76 66 65 63 60 64 81 87 81 70 56 57 61 64 58 54 49 69 72 59 48 46 47 52 66 82 84 66 81 89 90
85 90 99 100 100 100 100 100 100 99 97 88 70 65 57 50 42 40 50 76 84 82 70 54 68 79 73 62 56 54 51 50 50 52 57 60 65 77 87 90 92 92 90
88 95 100 100 100 99 100 98 99 98 95 82 63 59 51 45 37 30 29 49 65 62 67 72 77 79 70 61 52 48 47 50 55 60 60 64 64 63 70 80 86 88 90
95 96 100 100 100 99 100 100 99 99 81 71 54 49 44 40 34 32 40 51 58 66 76 79 77 70 64 56 45 42 43 46 51 58 69 75 74 72 77 80 83 89 91
96 97 99 100 100 99 100 100 99 98 92 78 62 45 43 38 30 29 26 36 63 82 82 72 72 70 67 60 54 51 54 60 63 65 74 79 84 88 88 86 83 81 83
96 96 98 99 100 100 99 100 96 65 74 75 52 52 45 44 42 30 50 73 78 76 73 69 69 73 73 68 64 63 64 67 68 69 74 78 83 84 89 89 88 88 89
100 100 100 98 99 96 97 99 97 74 64 56 57 63 81 86 86 70 66 72 73 69 67 68 66 66 66 66 64 67 69 69 70 76 78 78 79 85 88 88 91 88 89
100 100 100 100 100 100 100 100 93 85 83 75 58 50 40 86 87 85 90 93 81 73 63 60 58 58 57 54 56 60 66 66 66 68 69 75 86 92 96 98 99 99 97
100 100 100 100 100 100 100 95 89 85 75 67 60 53 44 40 63 66 72 76 80 76 74 74 62 52 44 45 50 54 60 61 62 71 82 91 97 100 100 100 100 100 100
100 100 100 100 100 100 100 99 93 94 95 98 98 93 88 78 68 51 45 47 50 49 41 41 37 30 32 41 44 47 53 56 61 72 83 98 100 100 100 100 100 100 99
100 100 100 100 100 100 100 100 97 94 89 89 96 97 98 98 100 97 60 49 52 38 58 86 29 29 33 38 39 42 50 53 59 72 84 100 100 100 100 100 99 99 99
100 100 100 100 100 100 100 100 100 99 99 99 99 98 98 98 98 98 98 78 94 86 85 59 37 30 28 34 43 40 50 54 61 72 81 93 100 100 100 98 99 98 98
91 98 100 100 100 100 100 100 100 100 100 100 100 100 99 98 98 98 98 94 96 97 95 71 84 29 39 56 33 38 44 52 60 66 77 88 99 100 98 97 97 98 99
91 91 90 93 96 96 99 100 100 100 100 99 100 99 99 98 98 98 97 97 97 97 97 97 85 73 92 35 31 35 41 51 58 72 100 100 100 99 99 98 97 100 100

GFSGL_925_rhum_069.txt.gz
RH
54 55 57 58 59 60 63 68 68 62 66 67 67 70 72 72 72 74 84 86 89 88 88 86 92 93 94 94 95 97 99 100 97 100 100 100 99 97 93 92 99 99 98
56 57 58 58 60 65 71 75 74 72 70 69 71 73 74 75 75 78 85 87 89 88 86 86 89 88 90 88 87 86 92 92 95 99 100 100 99 99 94 99 98 98 98
59 60 62 62 64 66 68 69 69 69 72 74 75 77 78 78 79 82 85 86 88 87 85 86 83 85 86 88 92 90 92 94 92 95 99 97 97 94 96 98 99 89 85
61 62 66 67 67 69 71 72 72 73 76 80 81 80 80 81 82 87 90 89 88 88 89 89 90 92 94 96 98 96 98 97 97 93 93 92 89 93 97 90 92 79 80
62 63 64 66 68 69 71 73 75 78 80 82 83 86 88 92 95 95 98 97 94 98 98 96 95 96 96 96 96 96 94 94 92 94 89 88 86 85 85 85 72 66 69
63 64 66 68 70 71 73 76 80 82 84 86 87 88 88 90 93 95 99 100 99 99 99 99 96 96 98 97 95 94 95 95 91 88 82 80 85 80 73 66 63 62 70
64 66 68 69 70 73 77 82 84 89 89 89 91 93 94 94 96 95 100 100 100 98 98 96 93 88 77 67 77 68 68 71 82 92 78 73 71 66 65 64 70 72 67
65 67 71 73 74 78 82 86 88 94 93 94 96 98 97 96 99 93 99 97 100 99 96 90 55 45 41 51 46 58 62 58 57 61 64 67 67 69 70 66 67 70 70
66 68 71 73 77 83 86 88 98 100 99 99 99 100 99 99 97 96 93 96 100 96 69 57 68 69 65 59 54 49 60 58 53 48 54 57 61 64 67 69 77 80 66
67 67 69 72 75 81 84 89 100 100 99 100 99 99 99 98 98 89 69 65 52 44 56 66 71 76 89 64 61 54 49 57 62 60 52 46 38 37 39 36 56 66 76
69 69 71 74 78 82 88 97 100 100 100 100 100 100 100 99 98 85 56 46 45 48 49 55 53 79 81 78 63 60 51 62 71 60 45 41 42 48 55 55 54 56 68
73 74 76 79 84 89 95 100 100 100 100 100 100 100 99 95 71 82 72 57 43 42 43 46 49 70 65 76 83 74 71 66 56 50 41 41 43 46 55 59 64 59 59
78 79 81 84 89 90 98 99 100 100 100 100 100 95 86 71 63 80 79 69 65 48 45 46 47 62 58 60 60 72 83 69 55 47 43 42 47 50 56 69 77 75 67
82 84 87 91 92 92 98 100 100 100 100 100 99 95 86 74 63 61 82 88 84 85 60 58 58 64 61 56 52 58 62 59 56 46 47 50 58 64 68 64 63 72 87
84 87 92 93 95 93 98 98 99 99 99 98 98 93 85 72 59 50 49 65 73 84 85 73 66 70 77 72 63 56 49 45 48 52 51 51 56 61 62 63 65 77 89
84 87 92 95 95 99 100 100 100 99 100 99 98 94 89 83 60 47 43 36 34 52 90 76 63 62 65 66 70 60 52 45 41 42 45 49 55 62 67 66 68 76 82
83 86 90 98 99 100 100 100 100 100 99 100 100 96 81 74 57 45 44 48 64 75 77 72 69 64 65 79 75 71 66 51 44 42 43 47 52 60 68 74 77 81 83
87 88 90 95 100 100 100 100 100 100 100 100 99 96 88 66 54 50 45 58 62 64 66 69 64 60 64 71 66 69 70 62 56 53 54 59 62 63 67 68 74 79 76
93 96 98 99 99 100 100 100 100 100 100 100 97 95 98 89 84 84 71 64 57 59 62 66 64 62 68 66 56 58 59 61 60 60 59 61 62 62 65 68 73 88 90
98 97 97 100 100 100 100 100 100 100 100 99 90 85 70 86 95 93 92 85 70 64 58 54 49 49 56 51 48 44 57 62 62 64 62 68 73 68 74 74 75 83 89
100 100 100 100 100 100 100 100 100 100 100 100 97 92 81 61 71 83 83 83 83 75 65 55 47 48 50 55 55 57 59 56 53 51 54 60 64 70 93 94 86 93 98
100 100 100 100 99 100 100 100 100 100 100 100 100 99 96 98 92 98 99 95 88 81 75 71 67 61 95 98 84 88 96 54 50 49 52 59 72 94 96 96 95 100 100
99 100 100 100 100 100 100 100 100 100 100 100 100 100 100 99 98 92 87 90 91 91 94 96 97 97 98 82 70 70 74 45 52 50 58 92 78 81 96 96 99 100 100
100 99 100 100 100 100 100 100 100 100 100 100 100 100 100 99 99 99 99 99 99 98 99 99 98 98 98 88 90 83 80 88 61 74 92 70 80 96 97 99 100 100 99
99 98 99 100 100 100 100 100 100 100 100 99 99 99 99 99 99 99 98 98 98 99 99 98 97 97 98 97 95 97 95 96 88 89 83 96 94 82 88 96 100 100 99
99 97 98 99 99 99 100 100 100 99 99 99 99 99 99 100 99 99 99 98 99 98 99 99 98 98 97 98 98 97 96 94 96 97 91 79 80 85 90 92 93 97 97

GFSGL_925_rhum_072.txt.gz
RH
51 52 53 55 55 55 58 62 62 63 64 68 69 68 68 67 70 71 70 76 87 88 90 91 92 93 97 93 99 100 100 99 100 100 100 100 100 100 96 94 91 99 98
55 56 58 59 59 59 61 63 65 67 68 67 67 71 72 72 73 73 75 84 89 87 90 89 89 92 94 91 92 90 92 93 98 99 100 100 100 100 96 92 97 99 96
59 59 61 62 62 64 66 70 72 71 70 71 72 73 74 74 76 77 79 84 86 88 90 85 85 85 88 86 88 87 87 89 93 99 100 100 100 95 92 95 99 92 85
63 63 64 64 65 66 68 70 70 69 69 72 74 75 77 78 79 80 84 88 88 88 90 89 88 89 88 90 94 95 92 97 98 97 98 97 92 92 91 92 99 90 81
64 64 64 65 66 66 67 69 71 72 73 76 78 80 82 84 86 91 93 96 93 93 93 93 92 94 96 95 96 96 94 94 95 94 93 92 92 92 88 93 84 72 71
63 63 65 67 67 68 70 73 75 76 78 80 83 86 87 88 82 87 92 100 100 99 99 99 98 96 96 95 94 92 94 93 89 92 86 85 85 84 83 71 65 59 64
64 65 65 67 69 71 73 75 77 79 82 86 88 89 90 89 90 92 91 99 100 100 99 97 97 95 86 80 86 77 83 87 93 91 87 84 83 80 72 66 68 65 59
67 66 66 68 71 73 76 78 80 83 88 90 91 92 93 93 98 99 97 94 100 99 98 97 91 86 69 49 53 50 55 52 57 63 65 66 66 67 66 62 60 63 68
67 66 66 67 71 75 78 82 86 88 93 93 94 96 96 94 99 99 97 97 100 100 98 93 61 43 53 55 50 53 64 56 53 52 63 66 68 67 71 69 71 76 66
70 66 66 68 71 75 78 84 88 96 100 100 100 99 99 98 100 99 98 94 100 99 86 61 67 69 82 78 53 45 50 56 58 57 52 48 40 44 48 39 46 63 69
77 71 69 69 71 73 78 86 90 98 100 100 100 100 100 99 98 100 66 81 77 56 52 60 73 82 90 88 58 55 49 52 63 62 54 42 39 43 48 44 47 51 54
79 73 72 73 75 78 82 89 94 99 99 100 100 100 100 100 99 100 87 49 43 46 44 44 47 69 82 80 81 64 69 68 59 59 45 40 41 44 52 57 58 58 56
79 76 76 78 80 83 87 94 99 100 100 100 100 100 99 99 98 88 82 76 62 50 40 41 44 61 79 75 76 78 86 76 64 52 44 41 42 46 52 62 71 77 74
83 83 84 85 89 91 94 93 99 99 100 100 100 100 99 95 88 71 86 81 71 72 51 49 51 65 67 62 55 61 71 77 65 54 43 42 46 54 61 70 66 68 77
86 86 88 89 93 94 91 90 97 98 99 99 99 99 99 94 86 68 60 81 78 75 80 63 66 70 73 73 67 59 55 54 56 50 45 46 50 56 62 62 64 68 81
87 89 92 95 98 98 96 97 98 99 100 100 100 100 97 96 89 76 55 55 68 85 99 85 73 69 68 70 70 62 58 50 42 41 44 45 46 53 58 63 66 66 72
92 88 93 96 98 100 100 100 100 99 99 100 100 100 100 94 90 82 58 54 60 76 90 96 86 74 58 56 58 65 68 56 48 44 43 44 44 48 56 64 70 76 79
90 91 97 94 98 100 100 100 100 100 100 100 100 100 99 99 89 77 58 70 68 69 76 85 79 71 58 55 54 64 64 69 65 58 48 46 47 52 59 64 66 72 74
100 100 98 97 96 99 100 100 100 100 100 100 99 100 99 100 88 65 65 63 67 69 69 71 68 62 56 52 53 61 57 62 63 62 58 54 55 60 64 67 64 73 84
100 100 100 100 100 100 100 100 100 100 100 100 100 99 100 100 98 94 83 72 68 61 57 53 51 52 51 49 54 62 54 61 62 62 59 61 64 64 70 72 70 84 94
100 100 100 100 100 100 100 100 100 100 100 100 99 98 98 82 97 97 94 96 89 78 71 58 51 49 46 45 46 55 56 58 57 56 54 56 61 67 71 72 87 96 96
99 100 100 100 100 100 100 99 100 100 100 100 100 99 100 100 98 99 98 84 77 79 90 95 87 71 66 60 54 59 83 61 74 87 58 67 63 68 68 90 96 96 96
99 99 99 100 100 100 100 100 100 100 100 100 100 100 100 100 100 99 99 98 99 100 100 100 99 97 93 94 95 97 99 98 97 98 70 65 65 71 94 96 96 96 96
100 99 99 100 100 100 100 100 100 100 100 100 100 100 100 99 100 100 100 100 100 99 99 99 99 100 98 99 98 98 97 96 95 89 87 62 79 96 96 96 96 96 96
100 99 99 99 99 100 100 100 100 100 100 100 100 100 99 99 99 99 99 99 99 100 100 100 99 98 98 98 97 97 96 97 97 97 89 84 96 95 96 96 98 98 100
96 98 98 99 99 99 100 100 100 100 100 99 99 99 99 99 99 99 99 100 100 99 99 99 98 98 98 98 98 100 100 99 99 97 95 98 98 98 98 93 92 98 99

GFSGL_925_rhum_075.txt.gz
RH
56 52 52 52 57 64 75 78 72 67 66 67 68 64 62 60 60 66 68 67 71 82 84 87 90 93 95 100 98 98 100 100 100 100 99 100 100 100 100 96 93 97 96
59 57 55 55 58 60 62 61 60 61 64 65 65 63 63 64 66 68 71 74 80 87 84 90 90 92 96 96 95 92 93 93 98 99 99 100 100 100 99 97 97 96 98
61 61 62 64 63 62 62 63 65 67 67 67 66 64 66 69 72 75 76 78 82 86 87 94 94 89 90 88 88 91 91 91 92 100 100 100 99 100 98 98 97 94 86
66 65 66 66 66 65 66 67 68 68 67 66 67 69 71 74 77 79 81 84 88 89 90 92 90 86 88 88 88 91 94 94 92 98 100 100 98 96 93 89 99 94 83
69 69 68 68 69 69 70 72 72 71 70 71 72 75 77 78 80 84 89 92 95 92 91 91 90 91 91 94 94 93 94 91 94 96 98 97 96 95 90 93 96 88 79
70 68 68 69 69 69 70 73 74 74 75 77 77 79 82 84 85 83 80 84 92 100 99 97 96 98 96 91 90 93 94 95 95 97 94 89 91 88 87 87 81 71 56
72 69 69 70 70 70 71 74 75 75 76 79 82 85 86 87 87 90 93 93 85 100 100 100 98 96 96 92 91 91 93 94 92 90 86 86 85 83 81 73 65 60 56
73 72 69 70 71 72 73 76 77 79 80 82 86 89 91 89 90 98 100 100 94 99 100 100 98 96 86 68 58 54 51 55 62 78 90 84 76 77 73 64 62 61 62
76 75 70 69 71 74 75 78 80 81 84 84 88 91 92 91 92 100 99 97 98 100 100 99 94 84 59 54 48 55 61 57 51 59 67 69 68 67 65 63 64 71 68
83 81 77 72 72 73 74 78 81 84 84 89 94 94 95 94 96 100 100 100 100 100 100 97 89 55 62 81 58 52 56 59 61 54 52 46 43 52 64 46 52 64 63
82 88 83 75 72 71 75 79 83 87 93 99 98 99 100 100 99 99 99 92 96 96 97 88 61 84 79 87 72 57 50 47 62 62 58 50 41 39 44 42 44 52 55
83 88 85 79 75 76 79 83 88 94 97 99 99 100 100 99 99 99 100 78 62 70 57 45 52 70 96 92 88 66 64 60 64 68 51 41 40 41 48 55 55 54 50
85 85 85 83 82 81 84 87 96 98 100 99 100 99 98 99 99 100 99 95 78 57 42 42 42 47 82 82 81 81 83 75 66 55 47 40 39 41 46 56 58 65 64
87 87 87 86 86 88 89 90 95 100 100 100 100 100 99 99 99 99 99 90 81 76 60 44 44 48 73 76 69 73 78 84 81 64 50 41 41 46 52 59 74 66 62
87 89 88 89 93 92 93 92 93 91 90 99 99 99 100 100 96 94 91 74 77 78 68 61 60 68 75 75 66 58 53 61 69 62 57 45 44 52 59 68 72 65 70
90 90 90 91 94 97 98 99 97 94 92 97 100 100 99 99 98 96 93 74 64 79 86 78 70 64 66 67 67 70 63 58 53 52 53 51 49 51 54 62 64 67 67
100 98 94 98 95 98 100 100 100 97 100 100 100 100 100 98 100 99 95 85 72 89 98 98 94 82 68 66 62 59 59 54 53 51 45 42 43 45 54 60 63 70 74
98 100 100 99 100 100 100 100 100 100 100 99 99 99 99 98 100 100 100 91 84 81 87 96 98 90 78 73 64 51 50 58 66 65 55 49 46 45 49 56 62 70 72
100 100 100 100 100 100 100 100 100 100 100 100 99 100 99 98 100 100 100 98 84 81 77 79 77 72 68 64 58 50 49 55 61 66 65 62 53 49 51 56 62 72 78
100 100 100 100 100 100 100 100 100 100 100 100 100 99 99 100 100 100 98 82 83 81 65 61 63 63 61 59 56 53 52 57 60 57 63 72 60 59 60 62 66 70 66
100 100 100 100 100 100 100 100 100 100 100 100 99 99 98 100 100 100 100 83 81 87 80 60 52 52 52 53 53 53 54 56 63 59 89 80 65 70 65 68 74 70 71
99 100 100 100 100 100 100 100 100 100 100 100 100 99 100 100 100 100 100 97 91 86 77 81 70 64 70 94 92 65 56 58 58 61 80 64 70 69 82 72 76 76 91
100 99 100 100 99 99 100 100 100 100 100 100 100 100 100 100 100 98 96 92 93 96 98 96 88 90 98 98 99 98 94 85 63 89 97 84 94 86 84 74 85 96 97
100 100 100 100 100 100 100 100 100 100 100 100 100 100 100 100 100 100 99 100 100 100 100 100 100 99 98 98 98 98 98 98 98 98 98 98 95 93 80 76 96 96 96
100 100 100 100 100 99 100 100 100 100 100 100 100 100 100 100 100 100 100 100 100 100 100 99 98 98 99 100 99 98 98 98 98 98 97 96 95 92 86 97 97 96 96
97 94 100 100 100 100 100 100 100 100 100 100 100 100 100 100 99 99 99 100 99 98 98 99 100 100 98 99 99 98 99 99 100 99 100 100 97 92 98 97 97 98 99

GFSGL_925_rhum_078.txt.gz
RH
61 58 54 50 49 52 62 82 86 87 87 86 85 77 71 65 63 64 63 64 66 69 76 83 83 90 91 95 100 100 100 100 99 100 99 100 100 100 100 98 95 92 92
63 62 59 58 58 60 63 73 77 74 70 68 68 69 69 66 64 64 66 69 71 74 81 87 87 93 93 97 99 98 96 96 98 99 100 99 99 100 100 99 96 95 96
62 64 64 64 67 68 67 67 66 66 67 67 67 66 64 64 67 70 71 72 74 78 82 86 91 95 92 92 90 91 92 92 91 99 100 100 100 100 100 99 96 96 94
65 68 69 69 69 68 69 70 69 70 68 68 68 67 68 69 71 72 74 77 82 86 89 91 93 88 85 84 84 88 90 92 95 97 100 100 100 100 100 96 98 97 89
63 67 68 71 72 72 70 70 73 74 73 72 70 71 72 73 74 77 80 79 83 91 91 92 88 87 89 90 90 93 97 98 98 96 100 100 100 99 97 94 96 95 90
65 64 69 72 71 71 73 75 76 75 73 72 73 73 73 75 79 82 83 88 85 79 94 96 96 96 97 97 94 87 93 95 94 99 99 97 95 94 91 90 90 87 73
71 68 72 72 73 73 74 76 76 75 75 76 76 78 80 82 84 86 90 92 94 87 89 100 100 98 97 95 95 90 91 93 96 95 94 91 86 86 86 82 78 67 54
72 75 74 77 76 77 77 78 79 79 78 78 79 81 83 84 86 87 98 98 99 94 95 100 100 98 96 84 72 65 62 59 71 82 92 92 88 84 83 75 66 62 61
74 76 81 80 78 78 78 80 80 80 81 81 80 84 86 86 87 95 99 100 95 96 100 100 100 97 93 82 57 53 58 59 58 61 64 69 69 70 69 62 57 61 66
80 79 86 87 82 78 76 79 80 82 82 83 85 86 88 87 88 99 99 100 99 98 100 100 98 92 58 79 61 51 56 56 58 54 54 52 63 80 62 56 59 66 57
85 82 86 90 89 81 77 80 80 84 87 90 94 98 99 96 94 99 99 99 97 94 99 98 96 89 62 85 84 56 49 47 60 59 55 49 42 39 40 36 35 44 51
88 84 88 90 91 90 84 82 86 89 94 98 100 99 98 98 99 99 99 98 89 86 95 96 86 60 96 95 93 67 58 56 58 66 56 45 38 37 41 48 50 48 46
86 86 88 90 91 91 90 88 94 96 100 100 100 99 98 98 100 99 99 100 93 52 42 41 44 52 83 91 88 79 81 79 60 63 56 46 38 38 45 57 57 60 65
92 90 88 93 93 94 96 95 96 100 100 100 100 100 99 99 100 100 100 99 99 89 59 50 43 45 54 80 80 83 87 86 80 73 59 46 40 40 44 50 60 69 72
100 96 94 92 94 97 96 94 97 96 96 96 98 98 100 99 96 96 97 98 97 89 82 67 57 66 67 83 77 67 66 70 78 78 71 55 44 45 52 59 74 75 66
98 98 100 100 96 98 100 100 100 97 95 95 90 91 93 96 96 95 95 96 95 87 89 74 65 59 66 72 74 64 60 56 52 60 61 57 50 46 50 63 72 71 67
98 99 99 100 100 100 100 100 100 99 100 96 95 100 99 97 100 100 99 100 99 99 93 89 76 70 63 60 59 59 58 54 57 60 55 47 44 46 54 55 56 64 69
90 99 100 100 100 100 100 100 100 100 100 99 99 99 99 99 99 99 100 100 100 100 98 98 92 92 85 82 72 66 64 56 58 59 61 53 46 45 46 50 56 61 64
95 98 100 100 100 100 100 100 100 100 100 100 98 99 99 99 99 99 99 100 100 96 90 97 94 90 80 73 67 61 60 55 49 55 64 62 58 55 50 49 48 55 68
97 99 100 100 100 100 100 100 100 100 100 100 100 99 98 100 100 100 100 100 100 99 96 88 89 80 71 62 58 59 60 58 56 54 58 61 63 61 63 55 52 56 63
100 99 100 100 100 100 100 100 100 100 100 100 99 99 99 100 100 100 100 99 100 100 98 88 80 70 57 55 58 60 58 57 57 54 57 59 61 84 79 64 62 64 64
100 100 99 100 100 100 100 100 100 100 100 100 99 99 100 100 100 100 100 99 99 94 87 77 71 73 56 52 50 59 72 63 58 53 55 66 67 97 94 82 74 74 73
98 100 97 100 100 99 100 100 100 100 100 100 100 100 100 100 100 100 100 99 100 97 92 88 84 79 78 80 75 84 99 98 94 83 67 70 75 97 84 94 94 94 85
98 100 100 100 100 100 100 100 100 100 100 100 100 100 100 100 100 99 100 100 100 99 99 99 99 100 100 99 99 99 99 99 99 98 98 96 95 98 96 97 96 90 92
98 98 100 100 100 100 99 99 100 100 100 100 100 100 100 100 100 100 100 100 100 100 100 100 100 100 100 99 99 99 98 99 98 98 98 98 98 98 97 97 95 91 96
98 98 97 100 100 100 100 99 99 99 100 100 100 100 100 100 100 100 100 100 100 100 100 99 99 99 99 99 99 99 99 98 98 97 98 98 98 97 97 96 96 97 96

GFSGL_925_rhum_081.txt.gz
RH
58 59 58 56 54 53 55 68 85 91 94 95 95 91 85 76 70 67 64 61 60 64 70 74 78 82 83 89 96 99 99 99 93 98 97 98 100 100 100 100 100 99 95
63 61 61 60 61 60 60 64 78 87 91 92 92 88 80 73 68 66 65 66 68 71 75 79 81 86 88 92 99 95 98 99 99 100 100 99 100 100 99 100 100 99 95
64 65 66 66 65 64 65 68 72 76 78 83 83 78 74 71 67 68 69 70 70 71 75 80 84 90 94 93 94 92 93 95 95 99 100 100 100 100 100 100 100 98 95
57 63 70 72 73 74 74 73 72 73 73 75 75 72 70 68 69 69 70 71 73 77 80 85 89 92 88 85 84 84 88 91 94 96 100 100 100 100 100 100 100 98 93
68 63 61 72 76 76 75 75 74 74 74 73 72 72 71 71 70 70 71 74 73 74 83 88 88 86 87 87 89 91 93 97 100 100 100 100 100 100 99 98 97 97 94
71 70 68 65 74 77 78 79 79 78 77 74 72 70 70 70 71 73 76 77 79 80 80 88 90 91 93 94 95 93 89 93 99 100 100 99 98 98 97 96 94 93 87
71 71 70 73 74 78 78 78 78 80 78 77 75 74 74 76 78 80 81 82 84 84 84 88 98 97 96 96 96 96 94 91 94 98 99 98 93 91 91 91 89 83 71
77 78 74 77 79 81 84 81 81 81 80 79 78 77 78 77 80 82 88 98 98 92 89 91 99 99 96 94 90 74 84 74 78 86 87 87 85 87 87 85 80 79 72
92 89 84 84 89 86 84 82 83 83 81 78 78 79 79 81 83 87 98 100 98 93 95 98 99 99 96 93 79 58 51 55 55 56 66 85 84 80 80 76 75 78 83
90 91 86 86 92 93 88 84 83 83 81 82 82 83 84 84 86 89 99 99 99 96 97 99 99 97 93 91 65 47 58 58 60 66 71 76 82 76 66 61 57 60 65
88 86 85 85 92 94 96 91 84 85 86 85 86 85 87 89 89 96 99 98 98 100 99 100 98 97 85 75 79 60 48 46 58 53 49 44 43 56 54 41 38 46 48
96 94 89 86 88 94 99 96 92 90 92 94 97 99 99 99 98 97 99 99 100 97 90 92 94 95 97 85 92 74 52 52 56 65 59 54 46 39 40 43 42 46 44
99 99 100 94 89 93 98 100 99 98 100 100 100 100 99 99 98 99 98 100 99 92 75 88 95 85 66 94 94 88 76 69 58 69 62 49 39 36 42 54 55 54 52
93 94 97 99 97 94 98 100 100 100 100 100 100 100 99 99 97 99 99 99 100 98 60 44 44 45 64 91 91 95 88 78 69 59 53 45 41 39 42 47 56 59 66
90 93 95 97 100 99 96 98 100 99 98 100 100 99 99 100 96 95 98 100 100 98 90 57 61 68 65 74 84 83 87 86 84 79 76 61 46 43 46 50 58 66 70
89 84 88 98 98 100 100 99 99 99 100 100 99 95 92 89 89 91 96 99 100 100 98 79 67 63 70 69 79 80 71 67 67 70 73 70 56 46 47 57 65 70 80
85 89 84 89 96 99 100 100 100 97 100 100 100 99 95 90 94 95 94 96 99 100 99 86 79 69 62 61 66 69 64 55 53 52 53 58 58 52 60 58 63 71 80
90 92 92 89 98 100 100 100 100 100 100 100 99 100 100 99 98 100 99 99 100 100 100 96 90 83 70 59 56 56 54 56 61 62 62 58 55 53 54 58 58 56 68
98 97 96 88 90 99 100 100 100 100 100 100 100 100 100 99 100 99 100 100 100 100 100 100 98 97 80 74 70 70 68 63 63 59 54 54 58 54 49 47 47 55 60
99 99 94 86 89 96 100 100 100 100 100 100 100 100 100 100 100 100 100 100 100 100 100 100 99 99 88 78 73 76 73 68 67 62 53 53 60 60 57 54 54 55 67
100 99 94 85 87 96 100 100 100 100 100 100 100 100 100 100 100 100 100 100 100 100 99 100 99 99 92 79 77 74 71 62 63 59 53 50 57 64 64 62 73 65 58
100 100 100 96 92 97 99 99 100 100 100 100 100 100 100 100 100 100 100 100 99 99 99 100 99 99 96 85 69 69 61 58 57 57 58 58 60 62 63 68 89 71 68
100 100 96 93 91 94 98 99 99 99 100 100 100 100 100 100 100 99 100 99 100 100 100 100 99 94 84 70 62 51 48 48 59 98 97 81 66 67 71 85 97 94 95
100 100 100 100 99 99 99 99 98 99 100 100 100 100 100 100 100 99 99 100 100 100 100 100 96 89 84 80 74 70 78 89 98 99 99 99 95 87 97 98 97 96 96
100 100 99 100 99 98 96 99 100 99 99 100 100 100 100 100 100 100 100 100 100 100 100 100 100 100 100 100 100 99 99 99 99 99 99 98 98 98 97 97 97 96 96
100 99 98 98 99 100 98 98 100 99 100 99 99 100 100 100 99 100 100 100 100 100 100 100 100 100 100 100 100 99 99 98 98 98 98 98 98 99 98 98 97 97 96

GFSGL_925_rhum_084.txt.gz
RH
66 68 70 66 60 58 65 78 83 89 93 98 100 100 100 99 92 88 80 69 65 64 64 84 85 76 90 94 99 99 100 95 88 85 90 94 95 99 99 100 100 100 99
66 66 69 73 67 67 63 65 78 93 99 100 100 100 97 88 81 73 67 65 64 72 75 73 85 87 87 88 92 96 96 96 98 98 96 95 99 100 100 100 100 99 99
65 63 67 69 73 74 74 71 72 82 92 97 96 93 88 81 75 71 66 64 65 72 75 79 86 90 88 93 96 96 99 99 99 100 100 99 100 100 100 100 99 100 98
70 65 63 68 76 78 80 74 74 76 82 90 92 90 85 79 73 70 69 69 70 76 71 76 85 90 88 91 94 93 96 99 99 99 99 100 100 100 100 99 100 100 96
65 70 70 70 72 78 79 81 78 77 78 81 81 80 76 73 70 69 70 74 76 79 74 83 87 92 91 92 94 95 98 100 100 100 100 100 99 99 99 99 100 100 97
63 67 75 74 75 80 82 81 78 77 79 78 77 76 76 73 69 68 68 80 80 79 82 88 91 87 87 87 88 87 96 98 100 100 100 100 98 97 99 99 98 97 90
73 74 79 79 81 83 85 87 85 85 82 81 83 83 80 79 72 72 73 84 87 90 88 89 99 95 95 99 96 93 91 89 91 99 100 100 99 93 95 97 96 91 83
78 80 83 85 84 88 89 90 90 92 91 87 88 87 86 86 75 78 83 95 91 84 82 82 90 93 94 94 93 91 89 84 80 83 94 96 92 86 90 89 90 87 86
74 79 85 89 89 89 92 91 91 95 95 93 89 86 90 88 81 92 98 96 99 97 89 92 100 99 94 94 90 76 66 72 51 49 64 82 86 88 89 86 85 79 67
80 82 85 90 93 94 98 99 100 98 92 96 89 87 84 88 83 88 98 99 100 100 99 100 96 96 96 95 89 77 63 58 75 88 83 73 84 80 76 79 89 95 68
92 88 86 90 93 94 99 100 100 100 97 90 88 86 86 85 92 88 97 100 99 100 100 97 99 98 96 99 95 64 55 60 72 66 58 57 73 87 77 56 62 74 84
78 88 91 95 94 97 98 100 100 100 100 99 99 98 94 95 91 88 98 97 96 99 99 97 96 96 96 90 91 75 56 51 66 61 54 49 47 55 58 42 38 41 41
69 73 81 76 82 93 98 97 100 100 97 98 100 100 100 99 99 94 98 100 95 98 96 92 95 94 98 90 91 82 75 72 63 62 55 54 63 66 50 46 46 46 46
66 65 71 78 91 85 97 100 100 100 100 100 100 100 100 100 99 99 100 99 100 98 98 83 88 95 98 89 89 98 79 73 62 60 57 61 62 43 66 63 78 79 84
68 68 68 69 74 88 93 99 100 100 100 100 100 100 100 100 95 93 98 99 100 99 100 70 78 74 71 79 85 84 84 83 78 68 66 59 54 63 68 78 82 86 82
73 70 71 74 72 78 89 95 100 99 100 100 100 100 99 97 95 93 94 100 100 100 99 73 65 64 64 62 76 80 84 90 89 90 86 76 59 68 72 84 88 86 81
76 76 77 79 76 75 80 89 97 98 100 100 100 100 100 98 100 94 93 99 100 100 100 90 73 68 65 64 69 75 82 81 80 81 77 78 72 72 74 82 84 82 84
82 85 89 86 83 80 87 88 97 99 98 99 99 100 99 100 100 98 97 100 100 100 100 98 92 84 75 68 72 80 83 83 69 62 64 65 69 69 80 81 83 82 80
83 90 93 92 88 89 90 86 92 100 100 100 100 100 100 99 100 100 100 100 100 100 100 100 98 97 99 86 76 69 66 72 62 61 63 64 64 70 82 79 81 80 78
84 91 94 86 87 95 86 90 92 93 99 100 100 100 100 100 100 100 100 100 100 100 100 100 100 100 100 99 87 74 67 73 73 67 66 64 64 64 71 70 77 77 76
94 96 96 93 91 95 81 89 92 94 98 99 100 100 100 100 100 100 100 100 100 100 100 100 100 100 100 100 92 78 75 75 79 76 70 67 60 64 66 66 69 76 80
97 94 94 91 95 94 87 89 90 96 99 100 99 99 100 100 100 100 100 100 100 100 100 100 100 99 99 99 95 82 81 78 72 62 67 63 59 60 68 76 82 84 92
96 96 94 96 93 87 86 84 86 89 97 99 100 100 100 100 100 100 100 100 100 100 100 100 100 100 100 100 96 91 71 63 53 52 63 60 61 67 72 82 84 94 99
99 95 90 91 93 92 94 90 96 90 88 93 98 100 100 99 100 100 100 100 100 100 100 100 100 99 100 100 99 90 65 51 49 58 55 64 98 95 95 100 99 97 100
95 98 97 93 95 95 93 90 85 84 90 92 95 100 99 99 100 100 100 100 100 100 99 100 100 99 100 98 87 81 71 66 70 78 81 98 100 98 98 99 99 100 99
99 96 95 96 96 94 90 90 89 88 93 94 96 99 99 99 99 100 100 100 100 100 100 100 100 100 100 98 94 96 98 100 100 100 99 99 98 98 99 99 97 99 99

GFSGL_925_rhum_087.txt.gz
RH
63 64 67 68 68 64 74 80 93 97 96 99 99 100 100 100 100 100 100 99 98 92 83 69 66 71 82 89 92 94 92 86 83 78 86 87 87 100 99 100 97 100 99
58 60 65 67 70 71 71 74 80 87 94 99 100 100 99 99 99 99 94 91 86 77 66 66 74 82 84 84 87 92 93 89 90 85 95 92 93 99 99 100 100 99 99
61 58 57 63 68 68 73 75 77 83 90 96 99 99 100 96 90 85 84 80 73 69 69 70 72 79 81 84 86 89 91 89 93 97 99 100 100 100 100 100 99 99 99
53 59 62 63 63 71 75 77 72 78 85 92 95 92 90 88 86 81 77 74 72 72 72 73 74 78 79 84 90 90 89 89 91 97 96 100 100 100 100 100 99 99 99
53 53 61 67 66 67 74 79 79 76 78 84 87 89 88 86 81 78 75 73 72 72 71 71 74 79 85 84 88 89 90 93 94 97 100 100 100 99 99 98 100 99 99
61 59 64 67 69 73 72 76 79 82 82 79 80 82 84 83 80 77 72 72 74 77 78 80 83 86 85 87 89 91 95 97 99 99 99 99 99 97 95 96 100 100 96
65 66 70 72 76 76 78 76 79 81 83 82 81 80 80 80 74 72 72 75 77 77 78 82 88 89 92 95 90 86 86 88 90 95 99 99 97 94 94 98 99 96 90
67 66 69 76 81 82 81 83 83 84 85 87 85 82 81 81 75 71 73 82 84 84 85 85 89 93 92 99 99 95 90 87 86 85 94 95 98 92 93 93 92 93 84
67 70 74 76 80 84 86 89 91 89 91 92 90 88 85 84 82 78 78 85 89 87 86 83 86 98 95 94 94 90 86 78 69 61 73 85 91 84 83 84 89 90 79
66 74 79 79 79 86 90 93 97 98 93 98 97 93 89 89 88 84 89 97 100 95 96 91 99 97 99 94 92 88 70 64 72 75 56 65 82 86 88 87 90 86 78
65 65 71 77 83 86 90 94 98 98 99 98 100 98 94 93 91 86 90 98 99 98 97 94 96 100 100 99 94 84 74 58 70 77 70 73 83 82 72 71 76 84 83
56 57 57 64 67 68 78 88 90 96 100 100 100 100 96 94 92 92 95 98 99 98 98 97 92 98 100 99 100 82 62 57 66 63 55 50 56 68 66 50 42 49 48
53 53 52 55 59 67 76 79 93 99 99 99 97 95 99 97 92 91 98 100 99 99 95 96 93 93 99 100 100 96 75 54 64 64 56 51 49 56 66 46 40 39 38
54 54 54 56 57 59 62 76 85 99 100 100 100 100 98 100 98 96 99 100 100 100 93 96 92 92 100 98 93 97 84 69 62 63 58 58 63 65 56 49 55 55 68
53 54 54 56 59 61 62 71 80 86 99 100 100 100 100 100 98 96 98 100 100 100 100 98 99 100 100 100 94 96 86 73 69 61 58 62 64 59 66 68 82 80 83
57 59 61 64 66 68 68 69 76 84 93 95 99 100 100 99 100 100 100 99 100 100 100 98 99 98 92 89 86 90 89 85 78 72 64 59 55 59 67 77 78 81 82
61 64 68 71 74 75 74 76 79 82 83 86 95 98 99 100 99 100 100 100 100 100 100 96 87 72 68 65 74 82 84 86 87 86 80 78 63 58 74 78 81 84 85
68 72 77 82 85 84 83 81 78 84 89 84 89 100 98 99 99 100 100 100 100 100 100 100 97 78 76 87 70 75 81 85 89 94 90 83 78 69 76 84 82 83 83
69 71 74 80 85 88 83 80 84 80 86 91 91 97 99 98 100 100 100 100 100 100 100 100 100 100 97 81 70 73 80 84 81 84 85 80 79 77 79 76 78 83 81
70 70 76 82 84 87 84 87 86 77 83 90 90 92 100 99 100 100 100 100 100 100 100 100 100 100 98 97 98 96 83 85 86 77 75 73 72 69 76 76 79 77 80
75 82 87 86 88 90 85 92 88 79 85 87 84 87 96 100 100 100 100 100 100 100 100 100 100 100 100 99 100 99 98 84 80 73 71 69 72 77 72 74 72 72 73
84 91 89 90 87 83 85 90 79 84 86 88 88 84 92 98 100 100 100 100 100 100 100 100 100 100 99 99 99 100 99 89 83 82 83 77 73 73 69 73 78 76 71
89 95 97 92 88 83 83 85 82 82 85 87 91 83 86 98 100 100 99 99 100 100 100 100 100 100 100 100 100 99 99 90 72 69 87 85 78 76 74 74 78 83 85
97 97 97 91 86 85 85 90 89 86 87 97 81 79 84 95 100 100 99 99 100 100 100 100 100 100 100 100 100 100 99 88 72 66 63 64 69 72 72 93 96 84 87
98 97 93 98 97 91 94 91 87 82 81 80 80 85 88 94 100 99 99 100 100 100 100 100 100 100 100 100 100 99 99 96 91 70 68 64 66 74 96 98 98 96 98
97 96 98 97 96 92 91 90 88 86 86 84 85 89 92 100 99 99 99 100 100 100 100 100 100 100 100 100 100 100 100 93 78 65 88 96 98 99 98 98 98 98 97

GFSGL_925_rhum_090.txt.gz
RH
60 64 66 66 66 64 68 78 86 96 99 99 92 91 89 100 100 100 100 100 100 100 96 97 94 89 78 69 64 66 76 84 92 86 87 95 94 94 98 100 97 92 94
59 56 61 65 66 67 67 68 68 73 79 85 91 97 100 99 100 100 100 100 100 100 99 100 93 80 72 70 74 82 85 90 87 87 88 90 94 100 100 100 99 99 99
53 60 61 59 61 68 71 72 71 69 72 84 93 96 99 100 100 100 97 100 100 99 96 92 80 74 76 84 87 90 89 88 86 88 97 94 96 97 98 99 99 99 99
54 54 58 62 66 66 68 73 74 73 73 78 91 96 96 99 100 100 99 96 94 88 85 78 74 76 74 75 81 86 90 89 86 87 90 99 99 100 100 99 100 100 99
62 61 64 66 67 68 70 71 77 78 75 78 81 91 90 90 90 89 87 85 83 79 78 77 76 78 80 79 83 85 88 88 90 93 92 99 100 100 99 97 99 100 99
65 65 68 71 74 74 73 74 74 78 80 79 79 82 86 89 87 87 83 82 80 78 77 77 77 78 78 83 86 90 88 86 91 88 94 98 99 97 95 96 98 100 99
68 66 68 72 77 81 82 81 82 82 82 83 81 81 81 82 85 84 86 82 79 77 73 74 76 76 79 81 85 89 90 92 95 94 99 99 98 94 94 95 96 97 95
67 70 73 76 77 79 84 88 89 90 90 86 87 84 82 80 79 78 80 79 76 75 75 76 76 77 77 80 86 87 86 86 90 93 96 91 93 92 92 89 89 96 90
65 67 73 79 80 80 84 88 92 94 95 89 89 91 89 83 80 80 82 83 80 80 80 82 82 82 81 95 99 98 94 89 82 80 81 85 90 91 86 87 91 94 89
62 64 65 68 76 82 81 87 90 93 94 93 96 92 94 92 86 83 82 84 84 86 89 87 82 87 84 100 98 92 89 82 75 54 46 66 83 87 95 84 83 83 80
51 54 56 57 60 67 68 72 79 85 88 95 99 96 96 99 94 92 88 89 85 97 95 88 87 98 96 100 97 90 85 73 66 62 56 63 75 82 88 89 89 89 86
50 52 53 53 54 57 61 69 76 80 89 96 100 100 99 98 100 97 94 98 94 91 90 88 88 92 99 99 100 90 83 73 62 71 74 71 81 83 73 73 75 78 86
51 52 54 54 55 56 59 60 70 78 80 90 99 100 99 99 98 97 98 98 100 97 88 88 89 93 99 100 100 98 77 63 60 67 66 53 50 72 71 55 46 42 48
50 52 53 55 56 57 60 62 67 76 82 81 89 96 100 100 100 98 96 100 100 100 98 94 92 93 93 99 100 100 88 72 59 60 58 55 51 51 57 56 41 45 47
51 53 55 57 59 64 67 69 70 73 81 80 83 96 98 99 99 100 100 100 100 100 100 99 99 100 100 100 100 100 98 82 62 60 64 60 59 61 67 56 48 54 75
54 57 60 64 66 70 75 76 77 77 76 83 82 86 92 100 100 100 99 99 100 100 100 100 100 100 100 100 100 100 99 87 72 66 62 61 63 64 59 72 78 71 76
52 57 63 71 77 82 86 90 93 86 84 77 81 79 86 98 98 100 99 100 99 100 100 100 100 100 100 100 100 99 100 94 83 73 62 61 60 56 73 77 83 85 79
51 58 67 73 75 78 81 81 80 80 83 78 81 90 82 90 98 99 99 100 100 100 100 100 100 100 100 98 96 96 99 94 90 82 74 65 62 55 69 75 76 81 84
55 62 68 72 74 78 80 87 93 85 72 74 76 81 82 84 97 100 98 100 100 100 100 100 100 100 96 96 95 91 99 92 94 90 88 86 79 70 71 77 70 76 79
66 70 73 72 77 78 83 90 90 92 88 75 78 78 79 84 91 97 99 100 100 100 100 100 100 100 99 99 99 99 98 94 92 92 95 95 88 82 81 74 75 80 85
75 75 80 79 81 83 86 92 95 91 98 74 81 81 79 82 94 97 99 100 100 100 100 100 100 100 99 99 99 98 98 91 91 86 87 90 91 89 78 70 72 73 76
96 98 98 97 97 96 94 95 97 99 93 72 79 85 78 77 84 90 99 100 100 100 100 100 100 99 99 99 99 99 100 100 99 93 83 84 80 77 73 76 75 76 75
98 98 98 98 98 98 93 88 87 87 87 85 86 90 98 90 79 83 97 100 99 100 100 100 100 100 100 100 100 99 99 99 97 97 92 82 81 80 76 81 83 84 83
98 98 97 98 99 98 98 98 95 93 93 93 92 94 86 77 80 84 92 99 99 99 100 100 100 100 100 100 100 100 100 100 99 98 86 74 76 80 82 82 81 80 82
99 99 100 99 99 98 98 94 91 89 89 88 85 78 79 85 90 92 90 99 99 100 100 100 100 100 100 100 100 100 100 100 99 99 86 78 79 83 87 83 86 82 97
94 95 98 98 97 92 95 97 96 94 94 97 96 95 95 96 90 89 100 99 99 99 100 99 99 99 100 100 100 100 100 100 100 98 84 79 80 79 84 89 92 98 97

GFSGL_925_rhum_093.txt.gz
RH
60 64 69 71 70 70 71 76 84 92 97 98 100 99 89 92 91 100 98 96 93 100 100 100 100 99 93 95 95 93 82 72 80 88 89 95 97 92 95 100 100 93 90
56 63 62 60 64 69 72 71 70 69 70 82 89 96 94 92 95 95 100 100 98 100 99 100 99 100 98 93 90 87 80 80 79 90 93 99 98 100 100 100 98 96 94
53 54 54 56 59 62 63 69 73 73 71 69 78 88 96 92 99 100 100 100 100 100 99 99 99 99 99 92 81 73 76 82 87 87 95 97 98 100 100 100 99 96 95
60 61 63 65 65 64 65 67 68 76 76 73 74 81 92 96 95 98 100 100 100 100 100 100 100 100 98 85 76 80 84 87 89 89 91 95 94 97 100 100 100 99 98
63 65 69 71 69 69 68 67 69 72 77 81 79 78 84 91 92 93 96 100 100 100 100 98 98 95 85 76 79 87 89 91 92 91 93 99 100 100 99 95 100 100 100
67 69 69 68 70 73 73 77 78 78 81 81 84 82 80 82 88 88 89 90 91 91 89 88 86 85 82 81 79 81 85 89 92 94 95 98 98 94 93 92 99 100 99
65 71 68 68 71 73 77 78 84 89 89 89 88 89 86 82 81 85 87 87 88 87 86 84 83 81 83 81 82 85 89 89 83 85 85 86 90 94 92 97 98 96 93
63 61 54 55 63 72 79 82 85 91 94 93 89 88 86 87 85 83 82 87 88 85 83 83 81 81 83 83 86 92 93 91 88 88 89 90 96 92 91 89 91 95 96
60 59 54 61 61 63 62 71 78 85 85 87 87 86 88 88 89 87 84 83 86 83 81 81 79 78 76 79 80 86 90 90 91 92 91 91 90 87 89 96 97 99 92
53 52 50 54 54 62 59 61 63 77 82 79 86 93 90 90 88 97 90 85 87 86 83 84 84 82 82 87 88 84 96 91 87 82 81 82 90 90 89 86 85 90 80
49 50 50 52 53 54 60 58 64 62 77 78 85 95 98 96 92 91 100 96 90 94 98 95 91 87 92 90 99 93 87 85 84 77 65 69 80 91 93 88 84 83 83
44 46 49 51 54 56 57 58 60 64 69 77 74 83 91 96 99 98 98 100 99 99 99 95 87 85 93 94 100 99 92 86 79 71 57 64 73 83 91 90 88 89 88
47 48 48 50 52 55 58 62 64 67 70 75 81 79 84 89 96 98 99 98 100 100 100 96 90 89 94 98 98 99 94 86 72 76 75 68 66 66 75 81 82 81 86
46 49 51 52 54 59 60 66 69 72 75 82 83 79 82 87 90 96 99 98 98 100 100 100 99 95 98 99 100 100 96 87 75 72 70 62 60 78 79 67 56 52 54
43 45 49 54 58 61 66 73 78 78 81 82 77 77 80 83 86 91 100 100 99 99 100 100 100 100 100 100 100 100 100 82 72 69 66 63 55 60 72 62 49 48 46
50 53 52 56 62 67 78 78 76 89 90 88 82 75 77 78 80 89 99 99 99 99 100 100 100 100 100 100 100 100 100 96 84 71 63 60 64 64 64 67 55 47 54
53 52 55 63 67 74 78 79 84 81 83 79 82 78 79 89 86 85 93 99 98 100 100 100 100 100 100 100 100 100 100 100 96 94 66 68 67 67 77 78 74 63 71
58 62 66 69 66 75 77 77 79 85 91 90 77 78 75 76 87 90 92 100 99 100 100 100 100 100 100 100 100 100 100 100 99 99 97 67 66 68 81 83 82 90 82
75 73 73 69 69 67 78 81 80 85 97 94 89 77 77 77 80 80 91 97 100 100 100 100 100 100 100 100 100 100 100 99 99 99 98 79 65 68 75 76 76 87 85
90 84 80 79 79 92 96 84 86 94 94 99 91 90 74 76 88 94 83 88 100 100 100 100 100 100 100 100 100 100 100 100 99 100 99 89 77 66 71 76 75 81 88
95 98 92 91 98 98 98 97 97 98 98 97 96 81 70 71 88 99 96 87 92 99 99 100 100 100 100 100 100 99 99 100 100 99 99 98 94 90 79 73 72 73 77
100 100 100 99 99 98 98 100 99 99 95 98 96 90 83 85 90 99 88 81 86 97 99 100 100 100 100 99 99 99 99 100 100 99 99 98 99 97 94 87 82 79 77
100 99 98 99 98 94 95 98 98 98 96 94 94 94 94 94 99 79 76 81 85 87 99 99 100 100 100 100 100 100 99 99 99 96 99 98 99 99 94 92 86 86 85
100 100 99 98 98 98 99 99 99 98 96 93 95 97 95 89 84 77 83 85 84 87 100 99 100 100 100 100 100 100 100 100 99 98 98 98 98 97 94 90 84 83 81
100 100 99 98 98 98 98 96 97 97 96 98 96 95 93 92 86 78 76 79 86 92 100 100 99 99 100 100 100 100 99 100 100 99 99 99 98 93 87 80 81 84 83
99 98 99 98 97 98 98 98 97 98 100 99 99 100 100 100 100 100 98 95 96 99 100 99 99 99 99 100 100 100 100 100 100 99 99 98 98 92 87 84 82 84 85

GFSGL_925_rhum_096.txt.gz
RH
70 70 73 84 87 86 84 82 80 85 92 98 98 100 100 99 94 96 90 92 94 89 95 98 100 100 99 98 99 94 89 86 79 87 89 94 97 95 90 85 85 89 91
57 55 59 61 60 62 65 71 74 74 72 73 81 92 98 100 100 94 100 100 100 100 100 100 100 100 100 99 100 100 99 89 83 90 96 100 100 100 94 90 92 98 94
61 60 62 64 62 63 64 64 67 72 78 77 75 79 88 94 100 100 100 100 100 100 99 100 99 100 100 100 100 100 99 98 91 79 97 100 100 100 100 100 99 98 97
65 68 70 70 68 67 67 66 67 72 76 79 82 79 80 84 93 98 95 100 100 99 100 99 100 100 100 99 100 100 99 93 88 88 92 100 100 100 99 99 100 99 97
66 70 71 68 67 68 69 69 69 70 73 78 81 84 84 81 84 90 92 93 100 100 100 100 100 100 100 100 99 100 93 84 92 98 98 100 100 100 100 97 98 100 99
57 65 56 47 47 55 65 75 75 73 78 84 85 88 86 89 85 83 87 88 87 92 99 100 100 100 100 100 100 99 82 80 93 96 99 99 100 94 90 93 98 100 99
53 56 49 43 46 49 52 52 64 76 79 82 86 87 85 85 86 89 86 87 90 90 92 92 93 94 98 97 93 88 87 87 84 84 92 91 92 89 87 94 94 98 92
43 49 46 43 45 42 46 51 55 60 69 82 78 81 85 82 82 85 93 90 87 90 90 91 92 90 91 93 90 93 92 95 97 94 87 85 82 81 81 86 87 92 97
45 48 49 47 46 47 50 55 59 58 65 65 83 83 83 94 90 86 91 95 93 86 88 91 91 90 88 93 91 88 92 96 96 94 91 88 87 88 92 98 99 100 96
48 48 49 50 50 51 52 55 58 56 60 68 81 76 69 87 97 96 98 100 100 95 88 89 90 90 87 90 88 89 96 94 95 95 95 92 91 92 91 91 90 99 91
47 45 48 51 53 52 54 58 59 60 61 63 63 67 72 78 80 96 99 100 100 100 98 93 89 88 88 88 87 87 84 83 93 90 89 89 91 96 98 94 93 88 85
38 40 44 47 50 52 52 54 57 64 66 67 71 74 78 78 87 88 99 99 100 100 100 98 96 94 94 94 98 88 89 86 90 87 84 87 92 97 98 93 93 89 86
40 41 40 37 40 47 56 58 63 67 71 75 79 86 83 78 78 87 90 96 98 100 100 99 99 99 98 100 100 100 100 99 93 89 81 77 73 74 91 95 93 91 88
45 46 46 47 48 51 56 61 66 73 77 82 88 76 77 74 78 81 85 90 98 100 98 98 100 99 100 100 100 100 100 99 94 90 83 69 61 78 88 88 90 95 97
49 50 52 56 57 53 52 63 73 80 85 89 93 88 76 72 74 78 82 84 89 97 100 98 100 100 100 100 100 100 100 100 95 88 82 76 77 82 79 79 80 84 73
61 61 61 62 64 69 71 69 72 81 83 88 85 83 84 80 79 80 84 86 88 91 99 100 100 100 100 100 100 100 100 100 98 88 88 81 76 78 83 78 68 61 58
72 72 71 72 74 77 84 78 88 77 86 86 88 84 80 71 76 77 80 85 87 92 99 100 100 100 100 100 100 100 100 100 100 99 99 98 82 70 82 86 76 62 62
89 87 84 84 84 86 84 77 79 80 80 86 90 91 88 85 76 76 81 87 94 97 100 100 100 100 100 100 100 100 100 100 100 99 98 98 98 96 89 84 81 77 68
97 95 94 93 90 91 90 95 85 87 77 81 91 90 88 85 73 71 71 80 96 99 100 100 100 100 100 100 100 100 100 100 99 99 99 98 98 98 94 88 87 91 84
99 96 93 97 98 99 100 98 98 98 96 97 97 96 95 95 88 90 90 93 94 95 98 100 100 100 100 100 100 100 100 100 99 100 99 98 98 98 97 94 90 88 90
97 96 91 99 98 99 99 100 99 98 97 99 97 89 90 86 92 88 93 94 97 91 96 98 99 100 100 100 100 100 100 100 100 99 99 98 98 98 92 82 82 81 89
96 100 100 97 94 96 98 100 100 100 99 99 98 96 92 88 90 91 93 96 77 77 82 97 99 100 100 100 99 99 99 99 99 99 99 98 99 99 89 79 84 85 85
96 98 97 99 100 95 95 97 100 98 98 98 99 99 98 99 99 100 98 83 76 77 82 86 93 98 100 100 100 100 99 99 98 99 99 99 99 99 96 90 90 90 90
96 98 97 98 99 96 98 98 99 96 96 95 93 95 96 96 96 95 85 74 80 78 75 81 90 97 98 100 99 100 100 100 100 99 99 99 99 100 98 98 95 92 92
92 100 100 99 99 98 97 98 97 96 98 100 100 98 98 99 100 98 97 98 98 92 81 89 96 99 99 99 100 99 99 100 99 99 100 99 99 98 98 97 96 97 96
100 100 100 100 99 98 98 98 98 98 99 97 100 100 100 100 100 100 100 100 96 91 91 97 99 100 99 99 100 100 99 100 99 99 99 99 99 99 98 98 95 98 96

GFSGL_925_rhum_099.txt.gz
RH
69 71 70 76 80 77 78 86 85 86 86 88 96 97 100 100 100 100 100 98 100 99 100 100 99 100 99 100 100 100 100 99 97 100 95 96 100 98 91 92 89 84 86
64 60 62 63 63 60 62 65 70 72 79 80 78 81 89 95 100 100 99 100 100 100 100 100 99 100 100 99 100 100 99 98 96 97 100 100 100 100 95 92 89 89 88
65 64 64 64 63 65 66 65 65 66 70 74 78 79 79 81 87 92 99 100 100 100 100 100 96 100 100 100 99 100 100 99 94 84 99 100 100 100 100 100 98 95 91
67 63 56 54 55 58 62 64 65 64 67 69 75 81 83 82 81 86 92 96 95 96 100 100 100 100 100 100 100 99 100 100 100 100 98 100 99 100 100 99 100 100 94
57 50 49 46 42 39 40 45 48 54 59 64 72 72 77 82 88 88 85 86 90 92 93 95 100 100 100 100 100 100 100 100 100 100 100 100 100 100 100 99 100 100 100
49 53 46 37 38 43 44 49 44 48 49 56 61 70 79 80 82 84 87 91 88 89 92 90 92 99 100 100 100 100 99 100 100 99 100 98 100 99 99 99 100 100 99
44 49 52 50 47 45 43 45 53 58 55 57 60 73 68 71 82 86 84 88 92 91 89 92 93 94 95 99 100 100 100 100 100 96 99 97 99 94 95 100 100 99 96
41 42 42 44 43 42 41 42 45 56 56 61 60 74 78 61 57 94 93 93 93 92 91 88 92 93 95 96 99 100 100 100 100 98 89 78 79 81 85 86 87 89 92
50 47 46 47 49 50 51 50 50 60 58 59 60 60 68 68 67 80 98 97 97 91 90 93 89 90 91 97 100 100 100 100 100 100 98 99 95 98 92 94 93 99 99
49 43 41 45 49 52 52 54 53 54 56 58 63 61 65 68 71 84 82 90 96 99 96 90 96 94 88 95 100 100 100 99 99 100 100 98 95 90 86 84 85 100 94
36 33 33 37 43 45 45 44 54 57 59 65 69 63 63 74 74 85 88 92 99 100 100 99 94 91 96 96 100 100 98 95 100 100 100 97 94 93 90 93 94 91 95
43 42 43 43 44 48 52 52 50 60 65 66 71 71 68 72 77 81 85 88 92 100 100 98 99 99 98 97 100 99 100 99 98 100 100 100 100 100 99 94 94 98 95
44 45 47 47 46 46 51 53 58 57 69 76 82 86 85 76 74 75 80 85 88 90 99 100 99 99 100 100 99 100 100 100 96 100 99 97 95 95 100 100 100 100 98
57 57 58 58 60 61 60 62 69 69 72 86 93 95 95 81 78 74 76 79 83 84 88 93 99 99 100 100 100 100 100 99 98 94 95 95 92 98 100 100 100 100 96
67 69 69 69 70 70 71 73 76 79 81 87 94 90 84 86 82 74 89 89 88 90 88 91 97 100 100 100 100 100 100 100 100 100 94 90 89 93 100 100 98 100 97
83 85 85 83 83 82 82 83 74 88 91 90 86 86 89 87 80 74 79 85 88 91 94 87 92 100 100 100 100 100 100 100 100 100 97 92 91 90 96 98 94 98 91
94 94 93 89 90 89 90 94 96 89 83 87 85 90 89 88 84 82 77 82 84 84 95 97 100 99 100 100 100 99 100 100 100 100 99 99 98 98 94 96 88 91 81
80 91 96 98 99 99 98 99 100 99 94 85 79 81 88 89 87 79 75 70 77 83 91 99 99 100 100 100 100 100 100 100 100 100 99 99 98 98 98 97 90 82 74
93 100 95 94 99 95 96 98 98 94 89 92 94 85 90 92 93 86 81 83 80 88 95 98 99 100 100 100 100 100 100 100 99 99 99 99 98 98 99 98 97 86 76
95 88 85 87 97 98 97 95 96 96 98 99 98 98 92 90 96 93 95 92 94 85 92 98 98 100 99 99 100 100 100 100 100 100 100 99 98 98 99 99 98 97 96
96 98 96 95 99 98 99 96 95 96 95 89 90 97 92 91 99 93 93 93 94 94 96 77 90 98 99 99 99 100 100 99 99 99 99 99 98 98 98 98 98 95 97
99 100 100 98 93 94 96 99 98 96 94 92 92 96 94 96 95 95 98 97 90 96 83 77 80 95 97 99 99 99 99 99 99 99 99 99 98 98 98 99 98 98 99
99 100 96 89 90 88 97 98 97 98 98 98 98 98 97 95 97 94 95 98 97 87 80 76 79 88 94 96 97 99 100 99 99 99 99 98 98 98 98 98 98 97 95
93 100 98 97 97 92 96 97 97 92 92 97 96 98 100 100 100 100 98 97 96 98 95 82 78 84 92 93 95 98 99 100 99 99 99 99 98 98 98 98 97 97 91
93 100 99 98 98 98 97 96 95 96 97 96 97 96 96 99 100 100 100 100 100 100 99 95 95 91 91 94 97 98 99 100 100 99 99 99 98 98 99 100 98 98 92
100 100 100 100 100 100 97 97 96 96 97 97 98 100 100 100 100 100 100 100 100 100 98 99 97 91 92 96 99 99 99 99 99 99 99 99 99 98 99 99 98 98 96

GFSGL_925_rhum_102.txt.gz
RH
79 73 67 69 72 78 70 70 72 74 79 82 88 91 92 98 99 99 100 98 100 100 99 98 96 92 98 100 100 100 100 100 97 99 100 98 100 100 100 100 92 91 91
72 64 61 59 62 66 68 64 65 64 63 69 72 80 82 84 84 91 96 100 100 100 99 100 99 98 99 100 100 100 100 100 100 98 100 100 100 100 98 94 94 93 95
66 51 43 43 39 45 50 49 53 52 53 59 66 70 74 79 82 82 85 90 94 98 100 100 100 100 100 100 99 100 100 100 100 97 100 100 100 100 100 100 100 100 95
53 44 41 43 41 42 43 40 44 49 46 48 53 56 66 72 79 85 88 86 83 85 90 94 94 99 100 100 100 100 100 100 100 100 99 100 99 100 100 99 100 100 99
47 48 45 40 38 36 34 35 39 40 39 36 35 37 45 48 68 90 91 90 90 88 85 84 88 89 96 100 100 100 100 100 100 100 100 100 100 100 99 99 100 100 100
39 42 43 43 42 42 40 38 38 40 45 43 42 45 51 55 51 53 84 94 90 91 89 89 86 86 85 91 97 100 100 100 100 100 99 97 98 99 100 100 100 99 99
43 43 44 46 45 46 47 46 42 42 46 46 48 52 52 46 57 80 81 100 100 95 91 88 89 87 85 88 90 95 98 100 100 98 98 97 99 99 98 100 100 98 98
42 39 36 36 38 43 46 45 44 47 48 49 51 59 62 52 51 74 86 81 98 100 99 96 94 89 87 87 91 93 97 100 100 100 100 98 95 96 94 92 92 99 99
44 39 38 41 42 43 42 42 44 50 56 56 52 54 62 57 53 72 81 88 87 83 86 96 98 100 91 89 94 98 99 99 99 100 100 100 100 98 99 100 100 100 100
47 43 43 45 47 48 49 48 48 49 52 59 63 62 64 61 56 78 81 83 90 92 94 84 91 99 99 98 100 100 100 98 99 100 100 100 100 100 96 92 90 99 97
48 46 46 46 48 49 50 48 53 51 48 50 62 64 68 70 71 83 80 82 86 90 85 95 92 90 98 98 99 100 99 99 99 100 100 100 100 100 98 100 100 99 93
48 47 48 49 52 53 55 57 59 61 66 64 65 69 69 72 71 85 84 80 80 76 78 81 92 100 100 98 95 100 100 100 100 100 100 100 100 100 99 100 96 95 87
57 58 59 59 59 61 66 68 69 70 75 83 87 86 85 82 72 76 82 79 76 81 83 86 87 90 92 99 99 98 100 100 100 100 100 100 99 100 100 100 100 100 100
65 65 67 73 74 74 75 76 78 81 84 89 92 94 95 92 86 76 79 83 79 75 76 79 84 85 87 93 99 99 100 100 100 99 99 100 100 100 100 100 100 100 99
76 78 82 83 86 87 86 86 85 86 89 91 97 97 93 92 87 88 82 85 89 90 90 95 77 75 82 98 100 100 100 100 100 100 100 99 100 100 100 100 100 100 99
88 92 90 91 91 93 94 95 94 91 90 90 87 84 86 83 91 87 85 78 89 80 92 99 95 90 99 98 99 100 100 100 100 100 100 100 99 100 100 100 100 100 100
96 96 94 93 95 96 97 93 90 88 91 90 90 88 82 95 98 83 79 81 84 79 77 82 94 94 97 99 100 100 100 100 100 100 100 99 99 99 99 100 99 99 100
85 91 96 96 95 93 89 93 90 86 87 86 86 84 91 88 87 85 84 83 86 79 69 82 94 98 98 99 100 100 100 100 100 100 100 99 99 98 98 98 98 98 98
88 93 89 87 87 91 95 99 93 86 85 90 94 93 92 94 91 88 87 91 90 92 89 82 87 94 92 99 100 100 100 100 100 100 99 99 98 99 98 99 98 99 98
86 95 96 96 96 93 92 91 90 93 94 90 93 90 91 98 98 94 92 98 98 96 96 96 98 86 86 92 100 100 100 99 99 99 99 99 98 99 99 98 98 98 98
95 99 95 100 96 89 91 87 90 96 97 96 95 93 85 97 98 98 98 92 92 96 99 99 99 81 80 93 98 100 100 99 99 99 99 99 98 99 98 98 98 99 98
98 99 100 99 95 92 94 96 96 96 95 97 96 98 89 90 98 97 95 93 95 98 100 99 90 83 78 80 93 98 100 99 100 99 99 99 98 98 98 98 98 98 98
97 100 100 99 92 92 95 96 95 96 96 95 96 95 92 95 97 97 97 98 99 100 99 97 94 94 84 84 91 95 99 100 98 99 99 99 98 98 98 98 98 98 98
99 99 97 93 91 92 97 97 95 90 86 88 89 91 97 95 94 97 99 100 100 100 100 100 100 98 94 95 94 94 94 100 99 99 99 99 98 98 98 98 98 98 98
94 96 99 100 99 98 98 97 95 93 94 93 93 94 95 96 96 97 97 99 99 98 96 95 98 97 96 96 95 96 98 98 99 99 99 99 98 98 97 98 98 98 98
93 99 98 98 99 99 97 96 96 96 97 98 98 99 100 100 100 100 100 100 98 98 99 97 93 93 97 97 96 93 97 98 99 99 99 99 98 98 98 97 97 98 98

GFSGL_925_rhum_105.txt.gz
RH
70 59 55 62 62 65 73 66 56 56 59 65 75 69 74 81 83 85 88 96 99 99 97 100 100 100 100 100 100 100 100 100 97 86 92 88 89 91 97 99 98 94 93
61 52 50 36 38 39 38 37 38 32 31 31 39 51 64 71 81 85 89 85 86 92 97 100 99 99 100 99 99 99 100 99 98 92 99 99 99 99 99 100 100 100 99
44 34 31 30 30 31 33 31 28 28 28 28 27 32 37 42 61 72 76 82 85 88 90 91 94 99 100 100 100 100 100 98 99 98 99 100 100 100 100 100 100 100 99
44 40 44 46 41 37 34 32 31 34 34 33 33 35 37 39 46 64 81 94 90 77 77 81 85 91 98 98 100 100 99 100 100 100 100 99 99 100 100 99 100 100 100
50 48 49 45 43 42 41 40 37 36 40 39 38 35 37 43 72 82 82 86 92 95 95 93 85 83 86 86 94 95 100 100 100 100 100 100 100 100 99 99 100 100 100
43 43 42 39 38 41 43 43 39 38 37 37 39 41 40 40 38 70 78 83 83 94 100 100 98 87 83 83 83 83 95 100 100 100 99 97 99 99 100 100 100 99 99
46 43 39 37 37 39 35 32 30 31 32 35 39 42 41 40 48 73 76 81 77 81 83 98 99 99 96 92 89 89 83 82 95 100 99 97 97 97 98 100 100 96 92
40 33 29 29 31 33 36 38 40 42 43 45 49 54 55 49 51 71 75 77 78 71 81 76 82 90 97 100 100 100 100 91 83 84 99 100 97 92 95 95 97 97 99
42 39 39 41 43 45 46 48 50 52 52 50 50 54 64 63 61 73 82 86 84 82 83 81 83 82 77 87 92 100 100 100 95 87 91 98 100 99 96 100 100 99 99
45 44 44 47 50 52 54 55 57 59 58 58 56 53 59 70 67 77 83 82 82 83 83 81 82 90 89 85 96 99 100 99 99 97 94 100 98 100 100 100 100 97 98
50 52 54 57 60 60 63 65 67 67 69 65 64 58 56 65 64 66 85 85 82 82 74 71 73 79 83 89 95 98 99 99 100 100 99 100 100 100 100 100 100 98 96
58 58 57 58 61 64 68 64 63 68 78 82 84 80 74 72 75 90 85 78 75 72 72 75 77 82 84 85 87 90 95 99 100 100 100 100 100 100 100 99 100 100 92
63 61 61 62 60 70 73 71 77 80 83 85 84 87 89 87 80 76 88 84 82 75 79 73 74 75 79 82 84 86 88 99 100 100 100 100 99 99 100 100 100 100 100
68 68 68 65 77 70 73 85 88 89 91 88 88 88 88 96 89 73 77 89 92 92 82 80 92 80 69 73 79 90 98 99 100 100 100 99 100 100 100 100 100 100 100
73 75 74 85 86 86 88 94 95 94 93 90 93 92 90 92 92 87 85 83 85 85 92 91 94 90 76 79 89 86 95 100 100 100 100 100 100 100 100 100 100 98 98
87 89 92 90 90 94 94 88 86 82 80 79 79 84 94 92 87 84 87 83 84 78 87 98 79 77 81 84 84 89 96 99 100 100 100 100 100 100 100 100 100 99 99
92 92 92 90 92 93 86 83 87 84 88 82 79 78 77 87 87 85 78 75 80 84 99 82 74 74 82 89 93 91 94 100 100 100 100 100 100 100 100 100 100 100 99
85 90 90 92 95 92 96 94 90 89 90 85 77 76 80 80 81 82 77 81 94 90 87 83 85 82 82 93 97 94 98 100 100 100 100 100 99 100 99 99 99 99 98
93 90 93 100 99 91 83 87 86 84 85 87 88 84 82 84 81 83 86 91 96 98 93 87 89 94 95 99 96 96 99 99 100 100 99 99 99 99 99 99 99 99 99
91 95 98 97 98 97 93 89 84 84 90 89 87 84 89 95 96 95 97 100 99 93 91 94 94 98 99 99 88 97 97 100 100 100 100 99 99 99 99 99 99 98 98
95 100 98 100 92 95 92 90 95 91 87 88 87 92 75 79 95 87 88 89 90 92 95 98 100 100 100 92 81 93 95 98 100 99 99 99 99 99 99 99 99 99 99
100 99 100 100 98 95 89 86 93 91 90 91 86 87 79 89 91 88 88 90 93 96 98 99 100 100 100 96 87 92 96 97 100 99 100 100 100 98 98 98 99 99 98
94 99 100 98 91 87 95 93 93 92 92 91 88 86 87 88 94 97 90 92 95 97 100 100 100 100 99 100 94 94 98 100 97 98 98 99 99 98 98 98 98 98 98
100 96 97 99 97 92 97 95 95 91 88 90 91 90 90 91 93 94 94 95 95 94 96 96 95 95 93 98 98 98 98 96 98 99 99 99 99 99 98 98 99 98 98
95 91 98 100 100 100 100 97 94 92 92 93 95 95 95 96 98 99 98 98 99 99 100 100 99 100 100 96 97 98 99 98 99 99 100 100 99 98 98 98 98 98 98
86 93 98 98 100 100 100 99 96 97 97 98 98 99 99 100 100 100 100 100 100 100 100 97 95 95 93 93 94 97 96 98 97 99 100 98 98 98 98 97 98 98 98

GFSGL_925_rhum_108.txt.gz
RH
56 53 47 42 43 59 61 51 51 49 48 46 45 46 49 57 64 69 74 85 83 83 85 91 94 100 100 100 100 99 100 100 96 85 83 83 86 83 82 77 89 87 89
65 59 50 43 46 53 54 52 53 53 42 45 46 48 49 54 58 73 80 83 89 91 89 85 90 96 94 99 100 100 100 100 100 96 90 93 91 89 88 90 97 99 100
46 46 48 46 45 45 48 46 44 48 46 44 44 44 49 51 54 57 58 61 69 73 81 89 91 95 98 98 95 96 100 100 98 96 89 95 98 100 100 100 99 100 100
52 51 51 47 50 55 52 49 47 46 47 45 45 45 48 51 53 59 59 60 59 68 78 82 84 91 93 96 99 99 99 98 100 100 99 100 100 99 100 100 100 100 100
51 52 55 52 52 50 50 49 44 43 45 47 45 42 45 45 46 66 63 57 59 58 57 65 81 89 87 97 100 98 98 99 100 100 100 100 100 99 99 100 100 100 100
44 45 45 41 42 45 46 47 44 48 47 47 45 48 53 48 60 72 72 60 56 56 55 60 65 72 77 91 95 99 100 100 98 100 98 98 98 98 100 100 100 99 99
45 42 42 42 41 43 43 41 42 44 46 47 46 46 47 48 59 69 74 63 61 63 66 66 64 61 74 74 82 92 97 99 100 100 99 99 98 99 99 100 100 95 90
45 40 42 44 43 46 47 48 48 51 53 54 55 54 55 56 67 76 78 69 66 68 66 64 60 58 57 75 72 72 82 87 93 97 99 100 100 100 99 97 93 95 97
44 44 46 49 50 51 52 55 58 58 61 61 61 62 64 64 72 83 84 71 67 65 62 60 63 63 64 82 77 83 79 79 82 93 100 99 97 94 100 100 100 100 100
49 53 53 55 56 56 59 61 66 66 66 67 67 66 68 70 73 81 82 68 61 59 58 58 59 65 76 79 78 72 77 78 81 90 92 88 99 99 93 100 100 97 94
55 57 58 59 58 59 62 67 68 66 66 67 62 59 58 61 68 81 85 76 65 62 58 58 60 68 73 78 80 79 81 83 85 82 92 94 92 100 100 100 100 99 98
62 63 59 59 61 60 62 60 60 59 58 57 57 57 59 62 68 75 84 81 76 72 64 61 65 71 72 71 71 72 72 73 81 84 86 89 97 100 98 99 100 100 100
61 57 58 60 60 64 62 60 59 62 64 64 62 62 61 62 63 69 73 75 78 79 73 74 79 78 80 75 69 66 70 75 89 86 90 92 96 100 99 100 100 100 100
63 61 62 60 67 63 65 67 70 69 70 72 69 68 69 70 66 66 68 68 72 71 70 75 84 91 76 74 68 70 74 80 84 96 100 99 99 100 100 100 100 100 100
67 67 66 67 68 68 70 72 76 74 76 77 75 75 79 80 74 84 80 84 86 76 89 79 78 75 69 67 68 69 71 81 84 97 100 100 99 100 100 100 100 100 97
72 66 68 71 68 73 73 70 70 77 81 84 83 80 79 81 84 82 86 92 81 82 85 81 88 73 66 65 68 73 75 74 76 91 99 100 100 100 100 100 100 100 99
79 75 70 71 72 73 76 74 76 76 78 77 77 77 77 78 77 88 85 80 75 77 88 83 73 67 68 73 74 78 84 80 87 98 99 100 100 100 100 100 100 100 100
83 82 79 78 80 79 78 74 74 76 79 75 70 76 78 75 74 76 76 77 81 74 77 79 83 76 75 78 83 86 88 87 90 97 99 100 100 100 100 100 100 99 100
83 77 78 82 82 82 81 79 78 77 74 78 77 72 69 73 74 76 78 87 81 80 82 88 80 80 82 85 87 94 93 89 86 93 99 100 100 100 100 100 100 99 99
78 85 91 84 82 82 81 80 77 77 81 76 72 71 74 82 81 76 72 68 68 73 78 83 86 85 86 89 92 93 90 87 84 90 95 100 100 99 99 99 99 99 99
82 85 83 83 86 83 82 84 81 84 84 73 72 73 74 82 80 76 75 76 78 79 84 88 90 89 89 92 95 95 90 88 87 88 97 99 99 100 100 98 98 100 100
86 86 87 87 83 83 82 85 85 82 76 75 74 74 75 78 78 77 79 83 81 82 88 95 96 94 96 97 97 99 97 95 92 93 97 98 99 99 99 98 99 99 99
91 92 89 83 81 83 84 84 80 79 79 77 77 76 76 78 78 79 79 81 85 90 92 95 96 96 94 96 95 98 100 98 94 94 98 98 99 99 98 100 100 99 98
95 94 86 83 86 85 85 84 84 83 79 76 76 78 80 80 81 84 87 91 93 95 96 96 97 97 94 97 97 93 96 100 99 98 97 98 99 99 98 99 99 98 98
97 93 90 91 92 92 89 86 83 82 81 82 83 86 87 89 90 92 94 99 100 100 100 100 100 100 100 99 99 99 96 96 100 96 98 98 99 98 98 98 98 99 98
94 91 94 95 93 91 90 89 87 86 88 93 95 98 97 98 98 99 100 100 100 100 100 100 100 99 97 97 96 94 99 100 100 97 98 98 98 98 98 98 98 98 98

GFSGL_925_rhum_111.txt.gz
RH
56 47 49 43 35 32 41 45 47 38 38 39 39 40 44 47 50 54 46 60 62 70 72 77 86 85 91 94 99 97 100 100 98 88 82 82 88 84 82 77 78 82 76
48 54 52 52 49 47 43 42 43 44 42 42 42 40 42 44 49 51 55 57 60 63 68 73 79 80 84 96 93 97 100 99 100 94 87 99 98 92 89 89 88 87 85
42 41 44 46 48 48 48 50 47 43 40 38 38 39 41 42 44 49 51 51 52 53 59 70 75 79 86 90 91 97 98 100 100 100 98 98 98 96 98 98 97 92 89
44 45 44 42 45 48 49 46 39 37 37 39 39 38 38 38 37 51 52 52 50 51 52 53 59 73 82 92 92 94 95 96 97 99 98 99 100 99 100 99 99 99 100
40 41 43 42 40 40 39 40 40 40 40 40 39 38 40 43 36 63 63 57 52 48 52 49 54 60 61 77 86 92 94 97 96 93 96 100 99 100 99 98 100 100 100
36 36 35 34 35 37 37 35 36 38 39 40 41 41 41 39 44 61 70 69 57 55 58 62 63 56 57 68 67 72 80 86 92 90 91 92 94 100 100 100 100 100 99
39 37 36 35 37 38 39 39 41 42 44 47 48 50 49 48 51 62 73 73 63 61 64 66 63 55 56 59 67 75 73 72 78 85 90 90 97 99 98 100 100 99 95
40 37 36 39 40 42 45 46 47 49 50 52 54 54 55 56 59 66 76 78 68 65 63 62 59 56 58 73 78 74 74 69 70 73 77 82 89 94 99 100 100 99 98
38 39 43 45 46 48 49 51 54 57 59 60 60 61 62 62 64 70 81 76 69 60 56 53 54 57 58 74 74 75 74 75 75 74 75 78 80 82 80 93 99 100 98
42 47 49 50 51 51 54 57 63 62 62 61 63 60 60 57 58 66 78 72 64 57 54 53 52 56 66 72 72 69 69 69 75 79 79 82 79 80 84 81 98 99 98
51 53 55 54 52 53 54 60 62 61 59 58 53 50 48 51 56 63 73 76 72 72 66 59 55 56 66 70 71 74 73 70 71 71 71 77 80 81 81 90 95 99 100
55 55 50 50 51 51 54 54 51 50 51 52 53 53 54 54 56 61 65 69 71 72 70 66 65 69 76 78 78 74 72 72 71 73 81 85 85 83 80 86 99 100 100
53 50 50 52 53 52 54 55 55 56 58 59 60 61 60 61 63 64 64 65 69 71 75 76 78 74 72 76 77 72 68 71 77 78 79 84 90 90 100 100 98 86 95
54 52 52 55 56 60 57 58 61 63 63 63 64 68 70 70 70 70 74 79 77 77 80 88 79 79 72 71 73 68 69 72 73 78 82 86 87 97 100 100 100 100 100
54 54 55 56 57 58 59 62 64 66 68 75 79 81 81 78 75 73 74 80 80 90 89 86 84 78 80 82 72 69 68 72 77 77 78 81 90 95 98 100 100 100 99
60 59 58 63 62 61 63 66 66 69 75 79 80 79 79 77 77 80 84 82 81 78 78 81 82 79 79 73 71 72 74 75 79 82 86 89 95 99 98 99 100 100 99
66 65 66 67 62 63 70 70 71 70 70 73 74 73 73 74 81 85 82 81 77 78 88 83 80 81 78 76 77 78 79 82 84 90 89 89 94 99 98 98 99 100 99
69 74 74 69 70 72 74 78 79 77 76 74 71 72 72 70 70 73 79 78 85 82 79 76 77 81 87 80 80 83 84 85 93 87 86 90 91 97 98 98 99 99 99
72 72 70 74 76 75 77 79 78 78 76 74 77 73 70 70 70 71 70 72 74 72 69 70 74 77 80 81 82 87 89 90 86 85 86 86 92 98 98 99 99 99 99
74 71 80 81 76 75 76 80 83 81 80 82 77 76 74 79 88 80 73 74 74 74 73 79 81 82 85 86 88 91 92 92 91 90 89 90 92 99 98 98 99 99 99
71 73 77 79 77 78 78 81 83 86 88 80 75 76 71 78 89 78 78 76 76 86 94 88 85 89 92 93 96 96 97 96 95 97 92 94 97 98 98 99 99 99 99
78 79 80 78 77 76 76 82 90 86 82 78 79 77 72 75 79 80 80 79 79 80 84 89 93 93 92 94 97 98 98 98 98 97 96 98 98 97 99 99 99 99 99
83 83 82 83 78 75 78 81 82 81 85 82 81 78 77 79 81 82 83 83 86 89 92 94 96 97 96 96 97 97 99 99 99 99 99 99 99 99 99 99 99 99 100
86 88 83 80 78 80 83 85 87 83 81 81 78 79 82 86 90 92 95 96 98 99 100 100 100 98 96 97 98 97 96 96 97 97 94 98 100 99 99 99 99 98 98
90 88 87 85 87 87 87 84 83 83 84 83 84 88 92 95 97 98 98 99 98 99 98 98 96 96 96 97 99 99 97 100 99 97 98 100 99 98 99 100 99 98 98
92 90 86 90 91 88 87 86 87 89 91 92 95 98 98 98 99 100 100 99 98 98 97 97 96 96 96 98 97 96 100 99 99 98 99 97 98 99 99 98 98 98 97

GFSGL_925_rhum_114.txt.gz
RH
51 50 47 46 45 41 40 42 43 41 39 39 39 39 42 44 49 51 51 56 56 57 58 63 71 83 81 92 75 83 97 98 97 91 87 98 97 96 94 92 88 85 79
44 44 46 47 47 48 46 41 34 34 37 35 35 36 36 39 41 47 49 52 53 58 63 64 70 74 90 78 70 96 94 96 99 96 94 94 99 99 98 97 93 95 94
43 43 43 42 42 43 41 38 35 35 36 37 37 37 38 39 39 45 45 54 52 49 52 57 59 64 72 58 89 84 96 94 96 98 94 95 96 94 100 100 100 100 100
43 43 42 40 38 38 37 36 36 37 38 39 38 39 39 40 39 45 51 59 60 54 51 53 55 59 61 62 86 82 90 91 92 94 92 92 97 96 99 100 99 99 100
38 38 37 35 35 36 37 37 36 38 40 41 44 45 46 44 41 54 65 72 69 63 58 60 64 59 56 66 65 72 78 82 87 90 89 86 86 92 98 98 100 99 98
38 36 37 35 36 38 40 41 42 44 46 47 50 51 52 52 55 58 66 74 73 68 66 65 67 64 58 60 69 83 82 79 83 84 83 85 85 97 99 100 99 100 99
40 39 36 37 40 42 44 46 48 50 51 53 55 57 57 57 61 64 68 74 71 72 69 66 64 61 58 62 77 76 76 75 73 71 80 80 84 79 88 93 96 100 98
41 39 38 41 44 47 48 50 52 56 58 59 60 60 61 62 66 68 71 75 73 71 66 60 58 56 56 60 72 72 73 73 74 76 78 78 78 80 86 90 94 91 97
41 41 44 47 49 51 51 52 55 59 60 60 61 60 60 59 59 66 69 77 76 71 63 58 56 55 57 64 71 72 72 68 64 68 72 74 76 79 81 83 92 95 90
41 44 48 51 52 51 51 51 56 58 59 58 58 56 55 55 52 58 65 73 79 77 74 69 66 61 58 64 70 72 84 77 75 76 72 67 73 74 85 84 84 99 94
43 45 50 51 50 50 51 52 55 54 54 53 54 54 54 55 56 61 65 68 70 73 76 73 71 68 66 70 74 76 80 80 76 70 71 74 75 80 81 91 85 77 88
46 51 50 49 50 52 52 54 54 55 55 58 60 61 63 63 64 66 69 70 70 77 78 78 77 78 79 76 73 75 74 76 67 72 78 79 82 82 82 81 89 75 89
51 50 50 51 52 54 56 59 58 60 63 65 64 65 69 75 74 74 72 72 74 75 79 79 82 87 87 83 80 74 73 71 70 76 82 83 81 79 83 84 75 85 99
49 52 52 54 57 57 57 58 59 63 65 67 72 79 83 82 81 79 78 82 82 83 84 86 98 88 79 77 74 73 78 69 71 74 80 81 81 81 86 88 95 95 99
54 53 54 56 57 60 61 61 64 66 69 72 77 82 80 85 85 82 81 80 80 81 78 88 88 85 86 85 82 78 71 69 73 76 82 86 88 87 87 90 88 96 98
58 59 60 63 63 64 63 64 68 72 72 74 75 77 78 77 75 79 82 80 75 74 78 84 89 92 87 87 89 79 76 79 78 81 90 92 96 93 92 92 100 94 96
62 64 65 69 72 69 68 74 79 79 79 76 75 75 74 74 80 79 81 78 80 76 83 97 98 92 90 88 89 88 82 84 86 86 91 100 90 97 89 89 92 94 95
62 68 73 74 71 71 74 76 78 88 84 82 80 75 75 74 73 72 78 83 77 75 78 81 77 78 81 85 84 85 87 90 89 88 94 95 90 91 93 93 94 96 96
64 70 72 72 73 80 78 78 79 81 85 84 81 83 77 75 74 79 78 78 79 79 78 78 77 78 83 84 86 89 90 94 93 94 94 92 92 95 95 96 98 92 96
70 77 73 75 80 80 78 79 82 84 84 87 92 83 80 84 93 90 81 79 79 79 78 83 95 94 94 91 91 94 97 97 97 98 98 99 98 98 98 98 96 97 96
76 74 74 77 79 79 79 79 79 84 95 94 88 82 76 79 82 79 80 81 81 82 83 85 88 93 95 95 95 95 97 98 98 97 98 99 98 99 99 99 98 98 98
79 77 79 81 81 82 81 78 80 88 91 90 85 83 79 79 82 83 85 86 87 89 90 95 98 98 99 100 100 100 99 99 100 100 99 98 100 99 100 99 98 98 98
81 83 85 84 86 84 77 80 84 87 87 90 91 86 83 83 86 90 92 94 97 99 99 100 100 100 100 100 99 98 98 98 99 98 98 100 99 99 99 98 98 98 98
86 89 87 89 86 82 83 87 88 85 84 85 86 87 88 92 96 98 100 100 100 98 99 99 97 97 97 97 98 97 96 96 99 98 97 98 100 100 100 98 98 98 99
87 89 91 92 89 89 92 91 90 89 90 92 93 94 96 100 100 100 99 99 98 100 99 98 98 96 96 96 96 96 96 100 100 98 98 97 98 99 100 100 99 99 98
88 92 94 90 87 90 92 93 93 89 92 92 95 97 100 100 100 100 97 98 98 99 99 100 98 98 97 97 97 96 97 100 100 98 98 98 98 98 99 99 99 98 98

GFSGL_925_rhum_117.txt.gz
RH
42 42 44 46 45 42 39 35 31 31 32 32 31 31 33 35 44 41 45 48 53 58 59 61 67 68 91 69 54 84 90 91 94 88 87 87 89 76 88 97 99 89 85
45 44 43 41 39 38 34 30 29 32 33 34 35 36 35 33 43 41 35 39 48 50 51 56 62 75 85 72 70 90 90 91 92 91 84 89 90 87 86 89 97 100 100
40 40 37 34 32 32 31 32 34 36 37 38 39 40 41 38 47 46 46 49 50 55 56 58 60 63 63 62 83 89 91 89 89 92 90 89 90 82 94 94 92 90 97
39 39 35 34 33 33 34 35 37 40 41 43 45 47 48 41 50 57 62 67 63 62 60 63 66 65 58 72 66 72 89 91 92 92 91 88 84 82 84 99 98 98 96
39 38 36 34 33 35 36 40 41 43 44 45 47 47 48 48 54 62 66 70 73 64 68 68 66 62 61 65 69 86 80 78 85 91 87 84 84 92 91 93 96 95 94
39 37 37 35 35 38 42 44 47 49 50 51 54 58 58 58 66 69 70 72 73 68 73 69 66 66 61 63 80 77 75 77 81 85 86 90 88 89 88 93 93 94 96
41 39 37 37 39 43 46 47 49 50 53 55 56 58 58 58 71 71 74 74 69 71 72 66 62 58 60 61 71 71 65 71 71 73 80 81 86 84 90 92 92 95 92
40 40 38 40 41 46 47 48 49 53 54 54 53 54 54 52 61 68 69 67 71 68 68 70 66 64 61 65 64 69 68 66 73 74 71 71 73 75 75 81 87 93 95
42 41 41 42 46 49 48 49 49 53 53 53 53 53 54 52 53 68 62 65 69 73 71 70 70 68 65 68 63 70 71 69 68 71 83 83 77 77 79 84 89 96 85
42 42 42 43 48 46 48 48 51 54 54 53 54 55 56 57 59 65 67 69 71 72 71 77 78 75 73 70 69 72 77 76 73 84 78 56 63 68 73 84 91 99 96
42 42 39 44 46 48 50 50 55 55 55 57 59 61 61 62 66 71 72 73 74 78 90 84 80 79 78 77 78 89 85 78 74 94 64 57 67 66 67 68 80 88 92
42 38 43 45 48 50 51 53 57 57 60 62 65 65 66 70 76 78 77 76 75 77 78 80 79 79 79 85 85 88 83 76 79 82 66 70 71 69 70 76 68 75 84
40 44 46 49 50 52 56 58 59 60 64 66 68 70 76 80 77 76 81 83 82 80 80 80 78 80 86 86 81 77 73 73 79 75 76 77 73 74 79 82 73 71 75
44 45 50 50 55 58 56 60 61 63 67 70 73 80 81 84 81 82 92 98 94 90 93 93 95 82 80 81 80 74 76 81 83 80 78 78 81 86 89 89 88 87 94
46 50 51 54 58 58 59 62 66 69 75 76 75 76 81 85 87 84 85 89 85 84 85 93 96 91 89 92 91 83 82 85 79 79 80 84 94 90 96 95 89 95 94
50 53 57 63 63 66 65 65 66 76 78 79 80 79 79 80 76 78 82 75 73 76 82 93 88 94 92 98 97 98 95 90 81 78 89 94 91 96 100 95 92 91 90
53 56 59 66 68 70 70 72 79 77 84 84 81 80 78 78 77 76 75 77 79 77 76 80 83 87 86 86 82 89 90 86 84 85 91 90 89 100 100 94 94 94 90
56 59 68 70 71 71 72 78 82 85 88 85 78 81 82 78 77 76 77 79 80 78 80 82 84 85 84 85 89 91 90 87 87 88 89 93 98 100 98 96 96 95 95
56 56 60 67 70 74 80 80 81 80 84 86 86 88 86 81 81 83 82 84 86 83 82 82 83 85 94 98 96 92 94 93 92 95 96 94 92 95 97 98 96 90 84
57 59 77 77 75 77 81 82 80 82 84 89 94 95 90 86 93 91 81 81 83 84 85 86 87 89 90 92 93 97 99 97 96 95 93 96 98 100 98 98 97 96 94
58 64 76 75 78 80 81 83 83 82 87 98 95 90 80 83 88 84 85 86 86 89 92 95 96 97 98 100 100 100 100 100 100 100 100 100 98 100 97 98 98 98 98
62 70 74 75 78 83 85 86 83 79 87 93 91 89 85 85 88 89 90 92 93 96 98 98 99 100 100 97 97 99 100 100 100 100 100 100 100 100 100 100 98 92 95
70 77 78 82 87 88 88 82 82 88 88 90 92 91 89 91 92 95 97 98 100 99 96 98 99 99 97 97 96 98 100 100 100 100 99 99 99 99 100 99 98 98 96
79 80 80 88 88 92 89 84 86 89 89 91 92 94 95 95 96 100 100 98 99 98 100 97 97 97 97 98 98 98 99 98 97 98 98 99 100 99 100 100 99 98 97
84 84 85 90 92 94 87 86 90 93 93 92 96 96 96 96 97 100 97 96 97 100 96 97 97 97 97 97 98 99 99 99 100 99 99 100 98 97 100 99 99 98 98
82 82 90 92 96 91 86 91 93 94 94 96 95 96 99 96 98 100 98 97 99 98 97 98 97 98 98 99 100 100 100 100 100 99 98 98 98 99 100 100 100 99 98

GFSGL_925_rhum_123.txt.gz
RH
45 43 40 38 34 29 26 28 31 34 37 38 38 37 36 48 48 43 46 45 49 56 57 64 83 71 56 52 72 79 73 90 96 86 73 73 70 61 54 52 66 72 84
41 42 40 36 32 30 29 31 34 36 38 40 43 43 45 59 60 63 58 48 54 60 67 69 66 60 59 72 87 70 83 91 93 94 87 82 83 73 89 74 65 60 48
43 40 38 35 33 31 31 34 38 39 38 36 39 44 46 51 60 67 68 65 56 60 70 68 70 64 70 70 73 88 80 75 78 93 94 78 82 85 72 63 57 52 39
45 42 40 37 33 32 32 36 39 42 44 44 44 45 46 48 70 75 74 70 59 62 66 68 68 69 79 68 81 78 68 65 72 84 89 86 78 72 73 83 85 82 64
43 42 40 38 35 34 34 37 40 41 44 50 52 51 50 53 77 77 77 74 66 65 67 66 64 69 71 78 76 76 70 68 72 75 80 80 80 82 89 86 92 89 80
43 41 41 38 37 37 36 39 40 40 43 43 45 50 52 54 80 76 77 74 67 67 68 65 65 66 64 62 75 80 75 71 71 76 80 85 81 79 82 90 92 91 89
44 42 41 39 38 39 38 40 39 41 45 48 51 53 53 54 79 74 74 67 69 72 74 73 72 71 71 67 68 74 79 79 78 75 78 77 83 82 88 87 87 93 93
44 43 42 40 39 41 39 39 38 42 47 49 51 55 56 57 75 73 78 72 72 72 72 73 76 80 81 82 77 75 72 71 75 75 77 79 82 89 82 80 86 87 86
45 45 43 41 41 41 39 39 43 45 50 50 54 57 60 61 64 77 79 78 75 74 75 82 88 83 81 78 77 76 80 80 77 76 85 87 89 91 79 79 71 98 88
45 46 43 42 43 38 38 42 45 48 53 54 55 59 63 63 63 79 82 81 79 78 78 80 74 78 76 75 76 77 90 89 79 89 90 86 82 82 81 66 72 99 100
47 46 44 44 42 38 40 45 46 50 54 54 58 60 63 66 72 82 83 82 82 82 82 80 77 82 80 79 79 84 86 84 94 87 84 85 80 74 72 68 69 80 94
49 46 45 44 39 40 43 46 49 55 58 58 63 65 69 73 73 77 85 84 82 81 84 80 80 88 86 78 82 84 79 75 84 88 80 83 73 69 77 70 64 67 69
49 46 45 41 39 42 46 50 55 58 60 62 70 74 78 77 79 75 88 91 89 89 89 86 82 84 87 88 85 80 78 82 84 90 93 92 90 93 86 73 62 64 62
47 46 44 40 41 46 50 57 56 58 62 69 74 83 84 86 82 79 84 86 90 92 86 88 97 91 84 78 76 78 80 87 97 94 98 98 95 82 74 68 81 81 92
47 45 43 40 50 53 57 56 57 58 66 70 84 84 88 89 84 85 78 83 84 84 83 95 85 75 79 83 89 90 87 86 85 86 86 86 86 85 85 89 95 92 100
47 46 41 43 49 54 59 60 59 75 82 84 85 85 83 85 84 80 81 76 80 88 92 79 81 83 89 91 93 94 93 89 89 89 92 92 96 94 93 95 92 96 96
44 42 42 53 53 62 66 68 69 59 70 85 85 83 85 85 82 82 79 81 87 83 78 82 88 90 90 91 92 92 94 94 92 93 94 93 93 97 100 100 100 99 95
44 42 42 49 58 61 67 68 71 83 86 78 70 85 88 88 85 83 83 82 83 76 83 87 89 91 91 93 94 96 97 99 99 99 99 97 96 99 100 98 98 95 93
47 46 54 51 54 62 67 69 78 82 85 82 82 75 81 91 90 86 86 82 86 87 87 89 90 92 94 96 98 99 100 100 100 98 98 98 97 99 98 100 100 90 90
49 45 51 58 60 68 73 79 79 83 84 85 85 80 85 88 96 96 84 81 87 89 90 93 95 98 100 99 98 99 100 100 100 100 100 100 98 97 98 100 100 98 96
48 51 74 69 63 71 76 76 79 83 87 89 82 81 88 86 93 86 82 85 90 92 94 99 100 100 99 99 98 99 100 100 100 98 98 97 97 99 98 99 100 100 98
46 48 54 71 73 76 75 75 79 86 90 84 84 83 92 89 84 87 86 86 91 95 95 100 100 100 100 98 98 98 99 99 99 98 97 97 97 98 98 99 100 99 98
47 51 56 59 63 74 79 83 89 91 86 83 83 90 90 88 91 90 87 88 92 91 91 97 100 100 98 98 97 98 98 98 97 97 97 98 98 100 100 99 99 97 97
47 54 58 63 68 73 77 83 85 91 93 87 84 90 90 89 93 91 87 89 91 91 92 95 99 100 97 97 98 99 98 97 98 97 97 97 97 100 99 98 98 97 97
60 59 64 69 71 79 83 91 92 92 86 80 84 89 90 93 93 90 87 91 94 94 94 95 95 100 97 97 98 98 98 98 99 99 98 97 96 96 97 97 97 97 98
64 67 70 71 74 77 79 84 88 90 80 80 85 88 92 91 92 92 89 93 95 96 95 93 94 98 98 99 99 100 99 98 99 98 99 98 98 98 100 99 98 98 98

GFSGL_925_rhum_126.txt.gz
RH
51 44 43 39 34 30 26 26 28 33 34 33 35 36 42 55 56 56 51 49 50 56 62 58 55 52 58 68 84 70 82 92 95 85 73 60 46 52 56 46 42 42 37
51 44 45 41 34 31 28 28 32 34 36 39 41 42 44 53 60 63 64 57 53 64 69 66 64 56 67 64 74 86 86 82 93 97 79 64 64 70 50 40 42 42 31
47 44 43 40 36 33 31 31 34 36 36 37 40 42 44 48 69 74 71 62 54 61 64 65 67 69 77 71 79 77 67 64 68 78 83 69 64 61 58 57 55 52 36
58 47 44 41 38 34 33 34 36 35 36 36 39 42 44 48 76 79 78 69 60 61 64 64 64 71 78 79 82 75 70 66 68 71 72 72 70 68 73 83 83 72 48
66 54 44 41 40 36 36 35 35 36 37 39 42 44 47 49 77 78 78 76 70 67 65 64 66 70 72 79 82 82 77 72 70 73 77 81 77 78 82 87 90 84 67
71 58 45 43 41 37 38 36 35 36 41 43 44 47 49 50 65 78 76 77 70 74 75 74 70 69 67 62 79 83 83 80 79 80 83 87 80 79 83 91 86 90 94
74 65 47 43 41 39 39 38 34 36 40 43 47 50 51 54 73 77 82 72 72 73 73 73 73 75 80 78 80 78 75 76 83 84 88 80 82 80 87 86 81 92 91
73 72 49 43 41 40 41 38 36 38 41 44 46 51 55 58 62 80 81 79 75 71 71 74 83 87 79 82 80 77 75 76 79 80 83 86 88 87 84 85 82 82 71
74 70 49 44 42 42 43 39 38 40 43 47 49 52 54 56 58 80 81 82 79 76 75 77 83 78 77 78 76 76 78 76 73 73 84 92 98 95 92 93 80 86 91
70 66 47 44 43 42 43 38 38 42 45 51 50 54 57 61 60 78 83 83 83 81 81 81 78 82 80 78 77 87 93 90 80 86 95 86 78 73 78 88 76 90 98
64 55 47 46 44 43 41 36 39 45 50 53 52 54 59 63 67 79 85 85 84 83 80 83 81 83 82 83 88 84 84 82 90 81 86 86 78 67 63 71 79 75 85
57 49 48 46 45 44 38 39 46 49 53 55 56 57 61 68 73 78 87 85 78 81 82 86 88 89 88 88 91 84 77 75 86 83 85 80 76 83 86 89 84 78 72
53 51 49 47 46 42 40 44 49 53 56 58 63 68 68 75 78 79 86 88 88 81 80 85 81 83 87 90 82 80 77 78 80 96 99 93 90 93 94 91 86 70 68
54 53 50 48 46 42 43 47 50 55 58 62 66 71 80 83 84 80 77 85 85 90 84 89 97 94 79 71 72 66 80 85 93 98 96 93 89 82 80 74 78 79 94
55 52 50 48 50 42 44 47 54 52 53 57 64 78 87 89 86 88 81 81 89 88 85 99 88 76 71 73 76 78 82 82 88 88 89 95 95 94 94 91 89 91 98
53 52 49 46 43 48 52 56 56 61 72 85 85 85 86 87 84 84 79 82 82 83 96 90 82 79 85 88 91 92 92 92 89 91 94 96 99 99 100 99 98 96 97
51 50 48 50 44 49 58 64 63 56 59 76 87 87 83 84 86 85 79 80 86 87 86 80 83 87 91 93 94 96 97 96 95 98 98 98 97 100 100 98 100 100 96
51 48 46 44 46 49 58 61 63 67 68 64 62 71 84 87 87 86 82 87 90 76 76 84 88 91 93 96 98 100 100 100 100 100 100 100 96 96 100 100 100 99 98
50 48 48 43 44 52 61 64 68 70 79 79 74 70 68 85 90 88 86 88 80 85 86 88 90 94 96 99 100 100 100 100 100 98 99 100 99 100 99 100 100 97 94
50 47 47 51 51 60 69 72 72 78 81 82 82 79 75 82 88 93 94 84 82 85 86 91 93 96 100 100 100 100 100 100 100 100 100 100 100 100 100 100 99 99 98
52 51 64 63 60 66 69 73 76 78 80 81 79 78 86 88 94 94 87 79 83 85 89 95 97 98 100 100 99 99 100 100 100 100 99 100 100 98 98 98 99 100 100
51 53 63 78 68 67 65 69 76 78 79 81 81 77 86 89 92 82 81 83 84 89 92 97 99 100 100 100 98 98 100 100 100 99 99 100 98 97 98 98 98 99 99
54 57 57 68 80 79 81 81 78 78 80 84 84 80 76 84 86 84 84 84 86 89 91 93 96 100 100 100 99 97 98 98 98 99 98 98 98 97 97 98 99 99 98
56 55 57 71 68 71 78 80 82 86 85 85 85 81 78 86 88 86 83 86 87 90 92 90 93 96 97 97 97 97 98 97 98 98 98 99 98 98 98 97 99 99 99
56 52 64 69 67 77 80 85 83 78 79 86 88 78 75 85 89 86 85 88 89 93 90 88 92 94 95 97 97 97 97 99 99 99 99 99 98 97 97 96 97 97 99
69 60 65 69 72 73 83 86 85 80 82 85 84 75 78 85 88 85 86 89 90 91 92 91 94 96 100 100 99 98 99 99 98 98 98 99 100 99 97 96 96 98 99

GFSGL_925_rhum_129.txt.gz
RH
67 55 43 41 37 33 28 26 24 25 26 27 30 32 36 43 50 56 57 48 46 54 58 73 71 75 80 85 89 93 90 90 80 80 81 57 65 55 49 48 44 50 24
70 59 48 44 41 34 31 28 27 27 27 30 33 35 37 41 57 64 67 60 53 62 68 67 73 78 80 85 90 82 79 81 80 75 80 82 76 56 51 52 52 42 34
74 66 49 45 42 36 33 31 30 29 29 31 35 38 40 43 67 74 73 62 58 59 62 64 71 81 85 88 90 82 79 74 80 78 77 85 82 79 73 76 70 47 42
76 68 50 44 41 38 35 33 32 31 31 34 36 39 41 44 71 79 79 72 64 61 60 62 66 76 84 82 81 88 82 78 78 76 74 78 83 73 75 88 82 76 64
76 77 61 48 43 40 36 35 34 31 31 35 38 41 43 46 60 84 78 78 72 69 69 66 64 69 74 84 78 83 90 84 82 79 77 81 76 74 76 86 86 83 70
76 76 71 57 46 42 38 37 37 32 31 36 39 43 44 47 52 83 79 79 72 73 74 70 68 67 67 69 86 88 84 81 85 87 84 80 78 80 87 89 84 83 76
81 76 74 64 48 43 40 40 39 34 33 37 39 42 45 47 54 82 82 79 75 73 71 70 72 80 82 76 81 81 78 80 85 86 86 81 84 83 92 89 90 88 81
83 80 77 70 51 45 41 41 41 36 34 39 42 45 46 46 52 76 82 82 79 73 72 73 78 82 76 82 83 81 80 76 73 80 91 94 96 93 88 99 100 95 90
85 82 78 74 55 45 43 42 42 36 35 39 44 47 48 48 56 68 81 82 81 78 76 76 79 89 84 80 77 81 80 85 75 74 87 91 92 95 89 99 98 93 79
73 78 79 74 57 45 43 43 42 36 35 43 48 48 49 51 55 58 84 85 87 86 83 82 81 87 83 78 83 91 93 83 86 94 95 92 82 79 76 87 91 92 83
64 73 77 73 54 45 44 44 41 37 42 49 51 49 50 54 56 65 88 87 87 84 76 78 85 89 86 85 86 91 93 83 79 86 88 89 87 84 83 84 90 96 93
64 69 69 64 48 46 45 45 40 42 47 50 54 51 51 56 63 71 89 86 84 77 77 78 78 87 95 85 86 85 79 79 87 85 83 80 88 91 94 88 92 96 96
64 65 61 52 50 47 47 44 44 46 53 54 61 63 55 57 69 71 89 86 87 86 81 87 81 88 87 92 78 77 76 79 84 84 80 85 94 98 86 80 70 70 71
64 62 56 54 52 50 47 42 41 47 56 57 64 65 62 69 75 75 74 77 81 85 80 81 96 98 92 79 74 73 81 87 91 90 86 87 88 93 92 93 92 89 90
64 60 58 54 57 51 47 41 40 39 43 50 50 54 72 86 81 85 88 83 82 92 88 98 99 88 78 76 78 83 86 90 92 92 91 89 88 86 88 91 94 93 93
65 62 59 56 54 53 47 46 46 47 51 58 71 78 85 91 90 84 83 80 82 84 94 100 86 78 78 80 83 84 89 92 92 94 96 97 98 98 97 98 100 100 95
62 60 57 59 53 52 57 58 74 59 78 83 84 83 86 86 84 85 84 82 80 87 97 86 80 82 86 89 91 94 95 96 99 100 100 100 100 100 100 99 98 98 96
60 58 55 56 54 50 49 51 57 63 67 59 67 80 80 82 85 86 85 82 88 85 82 80 86 88 91 94 97 99 100 100 100 100 100 100 100 100 100 99 99 98 97
59 57 59 54 51 47 82 65 68 66 67 67 60 66 68 82 82 87 87 85 91 88 84 87 90 94 97 100 100 100 100 100 100 100 100 100 99 100 99 100 100 96 95
57 54 55 54 54 79 89 76 78 75 76 76 76 68 66 75 84 83 85 89 88 84 87 92 91 96 100 100 100 100 100 100 100 100 100 99 99 99 99 98 98 98 96
62 59 64 58 76 94 69 72 73 74 78 79 74 67 70 84 88 91 94 90 80 80 83 88 92 97 100 100 100 100 100 100 100 100 99 98 98 98 98 99 100 100 100
61 61 62 79 74 69 69 70 72 76 77 79 75 69 86 86 87 91 90 78 78 81 84 90 93 95 98 100 100 100 100 100 100 100 99 98 100 99 99 98 98 98 99
60 63 62 69 73 74 74 75 75 76 80 78 73 73 80 77 74 79 78 78 80 82 84 89 92 91 90 99 100 97 98 98 98 99 99 99 99 98 99 98 98 97 97
64 64 67 67 71 76 80 80 83 81 79 81 75 77 80 76 73 76 78 80 83 84 87 89 88 89 93 99 100 98 98 97 98 98 98 99 99 99 100 98 98 97 97
70 70 69 69 71 76 78 83 82 82 82 84 80 77 79 76 70 75 79 81 85 86 87 86 87 90 95 96 98 97 96 98 99 99 99 99 99 99 99 98 98 98 98
77 73 78 76 73 74 79 78 81 83 80 81 81 77 80 72 70 76 80 81 86 88 88 86 87 92 93 96 95 95 100 99 99 98 98 99 100 99 99 98 97 97 97

GFSGL_925_rhum_132.txt.gz
RH
70 65 58 50 48 44 38 36 37 36 40 41 44 47 47 48 57 60 59 56 54 55 58 62 59 62 62 69 70 66 64 65 58 48 58 62 66 70 78 81 73 64 50
71 69 61 52 47 45 38 35 35 35 36 37 40 42 42 44 55 61 63 60 56 57 60 62 62 62 66 70 71 66 64 64 63 59 59 67 66 68 74 78 77 71 73
70 72 66 58 50 44 38 36 37 38 37 38 42 44 46 47 54 62 65 61 59 60 62 61 62 64 64 67 68 70 72 68 70 68 63 69 72 69 73 77 73 79 74
71 73 69 62 52 44 40 38 39 40 39 39 42 44 48 49 54 68 71 68 65 64 67 68 66 68 67 66 62 67 68 70 69 68 67 69 72 71 66 68 68 71 75
70 74 71 65 54 47 42 41 42 43 42 40 42 46 47 51 49 63 70 72 71 64 65 67 68 70 71 86 76 72 68 74 77 76 72 68 62 63 67 71 69 69 68
70 72 72 69 58 51 46 43 44 45 45 43 43 46 49 50 47 60 82 72 71 68 65 65 65 73 77 86 86 89 88 76 71 68 72 72 65 63 64 67 72 74 70
73 73 73 74 67 58 50 45 46 47 45 46 48 49 51 51 44 70 82 78 75 71 71 69 67 66 86 73 72 75 76 77 81 78 70 68 67 69 72 76 75 76 73
71 74 76 77 72 63 53 48 47 47 46 45 47 50 53 52 44 67 80 82 77 74 75 73 70 70 75 80 74 70 71 70 72 74 72 72 76 79 84 90 97 98 89
70 74 77 80 75 66 57 51 49 50 49 46 47 51 55 56 43 50 78 76 78 73 71 72 73 75 75 82 77 75 74 73 72 79 83 89 90 90 93 88 85 82 76
61 69 76 81 77 69 61 52 52 53 51 51 52 45 44 57 49 48 77 73 71 67 69 71 77 84 84 80 81 83 81 76 71 74 75 72 72 72 80 82 76 79 77
58 59 69 80 79 72 64 55 59 55 53 51 53 58 60 53 58 50 79 83 74 72 70 63 68 77 81 82 89 87 84 81 72 69 68 69 68 67 67 71 76 80 79
60 62 68 77 76 69 63 60 58 56 53 52 52 51 52 54 47 64 83 88 82 76 70 69 72 73 86 88 85 83 80 77 70 66 66 64 65 72 78 83 90 95 95
65 66 68 70 69 63 58 57 53 51 49 48 49 48 47 55 64 65 87 87 85 81 75 76 81 81 87 85 83 78 76 66 63 68 68 70 75 81 84 87 87 88 90
66 65 66 65 62 57 54 52 51 52 50 48 47 49 51 60 65 77 79 78 81 85 82 80 82 88 88 88 75 67 68 70 73 76 74 74 76 80 81 81 84 83 84
66 65 63 61 61 54 54 52 50 47 47 47 49 50 57 67 66 78 80 82 80 80 88 90 90 87 77 66 63 67 71 74 78 80 81 80 80 79 81 82 86 88 91
67 64 62 59 57 55 54 54 61 54 44 41 62 56 58 70 84 91 88 83 81 78 80 87 85 76 68 64 68 70 75 80 82 85 89 90 91 92 93 92 94 94 92
69 65 61 64 56 58 56 54 53 68 57 80 87 90 93 88 90 89 86 84 81 78 82 82 78 72 70 74 78 81 83 85 91 97 99 99 100 99 97 95 94 92 91
71 70 63 61 61 57 59 60 68 98 89 78 87 85 83 87 88 86 86 84 78 75 82 79 74 73 76 80 84 87 89 95 98 98 100 100 100 98 96 94 94 95 93
69 67 67 62 64 59 62 80 97 99 86 64 64 68 75 81 82 84 83 81 75 77 82 76 75 79 83 88 91 96 100 100 100 99 97 99 98 98 96 95 95 92 93
67 68 66 64 64 74 81 99 99 97 79 70 65 66 69 79 76 71 73 79 83 83 80 77 79 84 90 96 100 100 100 100 99 99 99 99 99 98 97 97 96 96 93
66 65 71 68 64 69 88 98 98 85 70 66 66 67 71 73 72 71 72 82 88 85 81 83 87 92 98 100 100 100 100 100 100 100 100 100 100 98 98 98 98 97 97
68 66 66 69 72 72 82 92 85 73 68 67 66 71 77 82 81 82 86 88 88 83 84 89 94 97 100 100 100 100 100 100 100 100 100 100 100 99 99 98 97 97 97
72 68 67 66 75 76 84 82 73 67 64 65 66 71 78 81 81 86 85 83 83 88 93 97 100 100 100 100 100 100 100 100 100 100 100 100 100 99 99 98 97 97 96
81 74 71 68 69 74 74 72 70 70 66 68 71 75 77 79 81 80 78 75 82 91 95 93 90 94 94 94 100 99 100 98 99 98 98 100 99 100 99 99 99 98 98
82 79 74 72 70 75 75 78 76 74 75 75 75 78 79 80 79 83 78 75 82 87 86 83 84 86 88 90 92 95 98 98 99 98 98 99 100 99 99 99 99 98 98
85 86 81 78 76 74 77 93 95 76 80 79 82 79 76 74 73 78 73 77 80 79 81 82 82 85 88 90 92 94 98 100 100 99 98 99 99 99 99 99 99 99 98

GFSGL_925_rhum_135.txt.gz
RH
55 57 57 55 53 47 44 40 38 37 38 39 38 40 41 42 44 52 54 50 50 50 54 58 57 57 59 62 65 62 60 61 59 52 54 60 61 64 68 72 70 65 68
57 57 59 56 54 49 44 38 34 34 34 34 32 33 35 36 40 49 55 56 52 53 54 56 55 57 60 64 66 67 67 62 65 67 61 66 70 68 71 72 70 71 67
54 57 60 60 56 50 45 39 35 34 34 34 36 34 35 37 40 46 55 57 54 54 56 60 58 59 59 60 62 61 67 67 68 69 67 66 68 72 68 66 67 68 71
51 56 59 62 60 54 48 41 35 35 37 36 35 36 38 41 42 48 59 61 60 59 61 64 63 65 68 70 68 65 63 66 70 73 74 71 69 64 63 66 69 66 67
49 55 61 63 62 59 53 43 38 37 38 39 37 38 42 45 45 46 58 64 65 62 59 59 61 65 61 82 80 78 76 75 71 70 70 71 72 65 64 65 70 72 71
53 58 60 65 66 63 56 46 40 40 42 42 41 40 40 43 43 43 46 73 66 63 61 61 61 65 65 80 77 78 83 83 79 75 72 67 67 66 67 72 74 74 76
56 59 60 63 66 68 60 51 44 43 45 44 44 43 43 44 49 51 70 80 70 71 70 71 67 59 67 76 72 71 70 71 74 77 77 71 68 69 74 74 75 87 90
57 59 62 66 70 70 67 58 49 46 46 46 45 44 45 45 52 62 75 79 76 74 74 74 71 67 66 74 79 76 71 71 70 70 73 76 78 75 76 83 91 94 96
58 61 64 68 71 74 73 66 55 48 47 46 46 47 48 47 57 54 74 75 74 76 71 68 68 70 73 77 81 79 74 72 72 73 71 74 80 83 85 87 85 83 80
53 58 60 66 73 76 76 71 60 52 50 49 51 50 48 48 54 67 74 71 66 64 64 65 68 74 80 81 84 85 85 82 76 74 76 72 68 68 70 73 78 84 82
58 61 64 64 70 77 78 73 64 55 52 51 59 54 52 51 53 65 76 73 69 67 68 67 64 66 74 77 79 91 92 82 82 75 72 67 66 66 64 66 72 77 86
56 61 64 66 70 73 74 72 64 61 54 55 56 51 49 51 55 57 70 77 76 76 73 72 67 70 75 80 84 86 81 84 78 72 65 64 64 66 72 75 76 81 85
56 58 57 60 64 68 67 66 63 60 56 57 72 46 42 43 47 61 71 80 86 86 81 76 74 81 81 83 83 83 81 81 71 65 68 71 72 76 80 82 79 79 82
58 58 58 59 60 61 62 61 60 57 54 65 47 45 44 44 50 58 68 78 85 83 82 84 80 81 85 86 86 74 64 66 68 72 78 80 78 78 80 81 83 83 91
63 62 59 60 59 60 56 55 55 52 49 50 68 46 47 49 54 58 70 76 74 80 81 83 91 89 92 84 72 63 64 68 72 77 78 80 82 82 83 84 88 91 96
67 66 63 61 60 57 54 53 56 51 51 62 48 45 60 54 63 70 81 86 86 82 81 81 81 85 86 76 66 67 70 75 78 80 85 89 91 93 91 93 93 98 97
69 67 66 63 62 57 57 54 55 66 60 56 58 87 87 64 76 86 90 88 84 80 82 80 81 83 80 73 73 77 82 83 84 90 95 96 95 94 97 94 95 92 94
66 68 70 67 62 60 58 58 56 59 80 92 98 99 89 91 91 89 88 86 85 80 79 78 83 80 76 75 78 83 84 89 94 97 97 96 96 96 98 96 94 96 95
64 65 67 70 65 62 60 62 62 69 90 98 90 80 88 88 85 86 86 86 81 74 73 76 81 78 78 81 85 88 93 98 99 97 97 99 97 98 97 98 98 91 92
68 66 68 67 67 65 63 63 75 87 95 97 75 63 62 76 81 83 84 85 83 80 78 80 80 77 81 87 89 96 99 100 98 98 98 96 94 98 98 98 98 97 96
74 72 67 73 68 64 66 74 84 93 95 89 73 63 64 69 75 73 68 70 72 76 80 82 81 82 87 90 97 100 97 97 99 99 99 98 98 99 99 99 99 98 98
80 77 71 68 72 68 67 75 91 94 96 91 83 65 66 70 73 70 69 68 73 81 82 81 83 89 92 94 100 100 100 100 100 100 98 97 100 99 100 99 98 98 98
94 83 78 72 69 70 70 71 79 87 85 77 71 64 70 76 80 78 75 77 80 79 78 80 84 90 91 97 100 100 100 100 100 99 98 100 100 100 99 99 98 97 97
100 98 91 79 73 70 73 77 81 82 77 78 64 66 69 75 79 78 78 76 75 72 75 83 84 86 90 96 96 100 100 100 100 98 97 99 100 100 99 99 99 98 99
100 100 100 93 79 75 73 75 77 76 89 96 72 68 71 74 74 75 73 72 72 72 78 82 80 80 84 85 85 86 91 97 100 99 98 99 99 99 99 99 99 98 99
100 100 100 100 95 82 78 77 76 83 99 98 95 72 74 76 74 72 73 75 74 72 76 77 74 79 83 83 84 89 91 98 100 98 98 98 99 99 99 99 98 99 99

GFSGL_925_rhum_138.txt.gz
RH
52 55 59 55 55 58 58 52 47 40 37 35 34 33 29 33 36 42 52 54 51 50 52 54 58 58 60 64 66 69 67 65 76 70 66 66 67 70 68 69 68 68 60
53 55 56 58 58 56 55 50 46 40 37 36 36 33 31 32 34 37 48 54 56 53 54 56 56 57 59 61 62 63 66 69 70 79 70 68 68 69 66 68 65 67 65
52 54 56 58 59 60 56 52 48 40 34 34 33 34 31 32 34 36 45 54 57 56 55 58 61 61 63 65 65 65 66 67 70 76 80 72 74 69 67 67 66 69 68
51 53 53 55 58 61 60 55 49 43 36 34 34 35 34 34 34 36 41 55 60 60 60 61 63 64 66 60 65 72 77 75 76 73 72 72 68 64 68 65 74 73 70
40 43 46 50 56 61 63 61 54 46 37 35 36 36 35 34 32 35 39 56 65 66 64 60 60 61 61 66 83 81 78 83 82 80 79 77 73 66 72 74 72 74 72
46 48 50 54 57 61 64 64 60 51 40 36 37 38 37 37 35 46 46 43 57 68 65 62 62 63 62 70 76 75 75 78 80 83 81 84 78 74 69 72 71 75 92
48 51 53 56 59 61 64 67 66 56 44 39 39 40 40 38 39 50 60 49 54 69 68 68 69 65 63 67 76 78 77 76 74 74 75 75 79 78 74 79 79 86 82
48 50 54 58 62 63 66 69 69 60 48 43 43 44 43 42 38 52 63 69 64 71 74 73 72 71 68 68 74 78 79 74 72 72 72 72 74 77 80 81 87 93 84
53 54 55 57 61 66 69 71 73 68 55 47 46 46 44 43 43 54 64 73 71 65 72 70 70 69 69 75 79 83 83 79 75 75 77 80 77 75 74 71 74 74 84
54 54 55 57 60 62 65 73 76 77 67 53 49 48 46 45 54 62 70 74 68 63 66 66 68 69 74 81 80 83 86 87 86 75 76 77 70 69 71 70 69 75 83
50 50 52 55 59 61 65 70 80 80 69 57 52 48 48 56 85 70 67 75 65 62 63 65 66 67 67 73 76 79 82 92 91 90 82 73 70 66 65 65 71 77 77
51 53 53 54 57 59 63 68 74 78 68 58 55 56 56 80 95 62 61 75 76 66 68 70 71 73 70 74 78 84 86 87 93 84 78 72 65 67 70 72 76 76 76
52 54 56 58 58 58 61 64 72 74 65 61 62 64 74 93 97 60 62 66 76 78 78 81 81 77 77 82 84 81 79 93 89 76 74 68 74 77 76 77 76 77 78
48 56 59 60 62 61 62 62 67 68 65 64 65 82 92 98 60 44 50 70 74 83 87 85 82 84 83 84 86 76 78 70 65 68 71 74 80 81 80 80 85 87 92
47 54 61 64 65 61 60 60 60 63 64 64 65 82 90 57 44 43 47 51 59 65 77 75 80 80 87 87 86 79 72 64 66 68 74 78 80 83 86 85 91 93 98
46 55 63 69 70 66 62 60 58 56 56 58 56 59 58 70 52 61 64 75 79 78 81 82 88 90 87 86 85 74 68 72 74 75 78 82 92 95 97 94 96 100 98
50 52 60 71 71 71 66 64 65 56 56 53 58 64 67 58 84 66 70 77 85 84 85 86 87 85 84 83 79 74 73 78 81 83 86 87 88 94 96 97 93 96 96
57 62 67 71 75 76 74 67 64 63 70 72 66 76 89 98 96 75 77 88 90 84 84 87 87 83 82 79 79 75 79 80 87 91 94 95 92 95 99 99 100 99 98
69 73 76 78 75 75 77 70 65 65 68 71 83 90 98 98 99 90 88 89 91 90 87 82 79 79 81 79 75 78 82 86 92 95 92 95 94 97 99 99 100 94 93
74 77 79 84 85 79 78 74 68 71 68 85 95 98 98 99 100 91 89 90 91 89 85 78 74 76 79 76 77 85 86 91 98 96 95 94 94 93 99 100 100 99 97
99 100 100 96 98 92 81 76 73 73 76 97 98 99 98 97 83 91 88 87 88 87 85 80 77 78 76 76 81 89 90 96 98 95 96 98 94 98 97 99 100 100 99
100 100 100 99 100 100 94 80 75 76 84 99 99 98 98 100 98 88 79 79 75 72 66 66 70 75 74 78 88 89 95 100 100 100 99 99 98 99 100 100 100 99 98
100 100 100 100 100 100 100 94 89 86 90 99 100 99 98 100 84 73 70 64 61 62 62 69 74 75 78 86 92 94 99 100 100 100 100 98 98 100 100 99 99 98 98
100 100 100 100 100 100 100 100 99 88 89 99 100 99 98 98 97 82 74 68 64 66 72 72 67 66 73 80 88 95 100 100 100 100 99 98 98 100 100 100 99 99 98
100 100 100 100 100 99 100 100 100 97 87 91 100 100 98 97 96 79 74 74 74 75 75 70 64 65 74 78 81 82 83 88 98 96 98 98 99 98 98 100 98 98 99
100 100 100 100 99 99 100 99 99 98 87 89 98 99 97 97 96 73 72 76 76 72 70 66 64 69 75 77 80 80 84 92 100 99 99 98 99 100 99 98 97 100 99